| time (UTC) | temp C | wind direction | speed KPH | gust KPH | rain 1hr cm | rain 24hr cm | rain mn cm | humidity % | barometer mb |
| 20260506045103 | 23 | 163 | 12.9 | 20.9 | 0.00 | 0.00 | 0.00 | 87 | 1006.7 |
| 20260506045004 | 23 | 160 | 11.3 | 20.9 | 0.00 | 0.00 | 0.00 | 87 | 1006.7 |
| 20260506044903 | 23 | 160 | 11.3 | 20.9 | 0.00 | 0.00 | 0.00 | 87 | 1006.7 |
| 20260506044804 | 23 | 160 | 11.3 | 20.9 | 0.00 | 0.00 | 0.00 | 87 | 1006.7 |
| 20260506044703 | 23 | 159 | 11.3 | 20.9 | 0.00 | 0.00 | 0.00 | 87 | 1006.7 |
| 20260506044604 | 23 | 159 | 11.3 | 19.3 | 0.00 | 0.00 | 0.00 | 87 | 1006.6 |
| 20260506044404 | 23 | 158 | 11.3 | 19.3 | 0.00 | 0.00 | 0.00 | 87 | 1006.6 |
| 20260506044304 | 23 | 158 | 11.3 | 19.3 | 0.00 | 0.00 | 0.00 | 87 | 1006.6 |
| 20260506044204 | 23 | 158 | 11.3 | 19.3 | 0.00 | 0.00 | 0.00 | 87 | 1006.6 |
| 20260506044103 | 23 | 159 | 11.3 | 19.3 | 0.00 | 0.00 | 0.00 | 87 | 1006.6 |
| 20260506044003 | 23 | 159 | 11.3 | 19.3 | 0.00 | 0.00 | 0.00 | 87 | 1006.6 |
| 20260506043803 | 23 | 157 | 11.3 | 19.3 | 0.00 | 0.00 | 0.00 | 86 | 1006.6 |
| 20260506043704 | 23 | 157 | 11.3 | 19.3 | 0.00 | 0.00 | 0.00 | 86 | 1006.6 |
| 20260506043603 | 23 | 156 | 11.3 | 19.3 | 0.00 | 0.00 | 0.00 | 86 | 1006.6 |
| 20260506043404 | 23 | 156 | 11.3 | 19.3 | 0.00 | 0.00 | 0.00 | 86 | 1006.6 |
| 20260506043303 | 23 | 157 | 11.3 | 19.3 | 0.00 | 0.00 | 0.00 | 86 | 1006.6 |
| 20260506043204 | 23 | 158 | 11.3 | 19.3 | 0.00 | 0.00 | 0.00 | 86 | 1006.7 |
| 20260506043103 | 23 | 156 | 11.3 | 19.3 | 0.00 | 0.00 | 0.00 | 86 | 1006.7 |
| 20260506043004 | 23 | 156 | 9.7 | 19.3 | 0.00 | 0.00 | 0.00 | 86 | 1006.7 |
| 20260506042903 | 23 | 156 | 9.7 | 19.3 | 0.00 | 0.00 | 0.00 | 86 | 1006.7 |
| 20260506042805 | 23 | 157 | 9.7 | 17.7 | 0.00 | 0.00 | 0.00 | 86 | 1006.7 |
| 20260506042703 | 23 | 158 | 9.7 | 17.7 | 0.00 | 0.00 | 0.00 | 86 | 1006.7 |
| 20260506042604 | 23 | 158 | 9.7 | 17.7 | 0.00 | 0.00 | 0.00 | 86 | 1006.7 |
| 20260506042504 | 23 | 158 | 9.7 | 17.7 | 0.00 | 0.00 | 0.00 | 86 | 1006.8 |
| 20260506042404 | 23 | 158 | 9.7 | 17.7 | 0.00 | 0.00 | 0.00 | 86 | 1006.8 |
| 20260506042305 | 23 | 159 | 9.7 | 17.7 | 0.00 | 0.00 | 0.00 | 86 | 1006.8 |
| 20260506042203 | 24 | 158 | 9.7 | 17.7 | 0.00 | 0.00 | 0.00 | 86 | 1006.7 |
| 20260506042103 | 24 | 158 | 9.7 | 17.7 | 0.00 | 0.00 | 0.00 | 86 | 1006.8 |
| 20260506042006 | 23 | 158 | 9.7 | 19.3 | 0.00 | 0.00 | 0.00 | 86 | 1006.7 |
| 20260506041906 | 24 | 159 | 9.7 | 19.3 | 0.00 | 0.00 | 0.00 | 86 | 1006.8 |
| 20260506041805 | 24 | 160 | 11.3 | 19.3 | 0.00 | 0.00 | 0.00 | 86 | 1006.8 |
| 20260506041606 | 24 | 160 | 9.7 | 19.3 | 0.00 | 0.00 | 0.00 | 85 | 1006.8 |
| 20260506041506 | 24 | 160 | 9.7 | 19.3 | 0.00 | 0.00 | 0.00 | 85 | 1006.7 |
| 20260506041405 | 24 | 160 | 11.3 | 19.3 | 0.00 | 0.00 | 0.00 | 85 | 1006.7 |
| 20260506041306 | 24 | 160 | 11.3 | 19.3 | 0.00 | 0.00 | 0.00 | 85 | 1006.7 |
| 20260506041205 | 24 | 160 | 11.3 | 19.3 | 0.00 | 0.00 | 0.00 | 85 | 1006.7 |
| 20260506041106 | 24 | 162 | 9.7 | 19.3 | 0.00 | 0.00 | 0.00 | 85 | 1006.7 |
| 20260506041006 | 24 | 164 | 9.7 | 19.3 | 0.00 | 0.00 | 0.00 | 85 | 1006.7 |
| 20260506040906 | 24 | 164 | 9.7 | 19.3 | 0.00 | 0.00 | 0.00 | 85 | 1006.7 |
| 20260506040606 | 24 | 163 | 9.7 | 19.3 | 0.00 | 0.00 | 0.00 | 85 | 1006.7 |
| 20260506040506 | 24 | 163 | 9.7 | 19.3 | 0.00 | 0.00 | 0.00 | 85 | 1006.7 |
| 20260506040406 | 24 | 163 | 9.7 | 19.3 | 0.00 | 0.00 | 0.00 | 85 | 1006.6 |
| 20260506040305 | 24 | 163 | 9.7 | 17.7 | 0.00 | 0.00 | 0.00 | 85 | 1006.6 |
| 20260506040206 | 24 | 163 | 9.7 | 17.7 | 0.00 | 0.00 | 0.00 | 85 | 1006.6 |
| 20260506040106 | 24 | 162 | 9.7 | 17.7 | 0.00 | 0.00 | 0.00 | 85 | 1006.6 |
| 20260506040006 | 24 | 162 | 9.7 | 20.9 | 0.00 | 0.00 | 0.00 | 85 | 1006.6 |
| 20260506035806 | 24 | 161 | 11.3 | 20.9 | 0.00 | 0.00 | 0.00 | 85 | 1006.5 |
| 20260506035706 | 24 | 160 | 9.7 | 20.9 | 0.00 | 0.00 | 0.00 | 84 | 1006.5 |
| 20260506035606 | 24 | 159 | 11.3 | 20.9 | 0.00 | 0.00 | 0.00 | 84 | 1006.5 |
| 20260506035506 | 24 | 159 | 11.3 | 22.5 | 0.00 | 0.00 | 0.00 | 84 | 1006.5 |
| 20260506035405 | 24 | 159 | 12.9 | 22.5 | 0.00 | 0.00 | 0.00 | 84 | 1006.5 |
| 20260506035306 | 24 | 159 | 12.9 | 22.5 | 0.00 | 0.00 | 0.00 | 84 | 1006.4 |
| 20260506035206 | 24 | 158 | 11.3 | 22.5 | 0.00 | 0.00 | 0.00 | 84 | 1006.5 |
| 20260506035105 | 24 | 158 | 11.3 | 22.5 | 0.00 | 0.00 | 0.00 | 84 | 1006.5 |
| 20260506035006 | 24 | 157 | 11.3 | 22.5 | 0.00 | 0.00 | 0.00 | 84 | 1006.5 |
| 20260506034905 | 24 | 157 | 11.3 | 22.5 | 0.00 | 0.00 | 0.00 | 84 | 1006.4 |
| 20260506034806 | 24 | 155 | 11.3 | 22.5 | 0.00 | 0.00 | 0.00 | 83 | 1006.5 |
| 20260506034606 | 24 | 156 | 11.3 | 22.5 | 0.00 | 0.00 | 0.00 | 83 | 1006.4 |
| 20260506034405 | 24 | 154 | 9.7 | 19.3 | 0.00 | 0.00 | 0.00 | 83 | 1006.4 |
| 20260506034306 | 24 | 154 | 9.7 | 19.3 | 0.00 | 0.00 | 0.00 | 83 | 1006.4 |
| 20260506034206 | 24 | 154 | 9.7 | 19.3 | 0.00 | 0.00 | 0.00 | 83 | 1006.4 |
| 20260506034105 | 24 | 153 | 9.7 | 19.3 | 0.00 | 0.00 | 0.00 | 83 | 1006.4 |
| 20260506034006 | 24 | 153 | 9.7 | 19.3 | 0.00 | 0.00 | 0.00 | 83 | 1006.4 |
| 20260506033906 | 24 | 153 | 9.7 | 19.3 | 0.00 | 0.00 | 0.00 | 83 | 1006.4 |
| 20260506033806 | 24 | 154 | 9.7 | 19.3 | 0.00 | 0.00 | 0.00 | 82 | 1006.5 |
| 20260506033707 | 24 | 154 | 8.0 | 17.7 | 0.00 | 0.00 | 0.00 | 82 | 1006.4 |
| 20260506033605 | 24 | 153 | 9.7 | 17.7 | 0.00 | 0.00 | 0.00 | 82 | 1006.3 |
| 20260506033506 | 24 | 155 | 9.7 | 17.7 | 0.00 | 0.00 | 0.00 | 82 | 1006.3 |
| 20260506033406 | 25 | 157 | 9.7 | 17.7 | 0.00 | 0.00 | 0.00 | 82 | 1006.3 |
| 20260506033306 | 25 | 157 | 9.7 | 17.7 | 0.00 | 0.00 | 0.00 | 82 | 1006.2 |
| 20260506033206 | 25 | 160 | 9.7 | 19.3 | 0.00 | 0.00 | 0.00 | 81 | 1006.2 |
| 20260506033105 | 25 | 160 | 11.3 | 19.3 | 0.00 | 0.00 | 0.00 | 81 | 1006.3 |
| 20260506033006 | 25 | 162 | 11.3 | 19.3 | 0.00 | 0.00 | 0.00 | 81 | 1006.3 |
| 20260506032705 | 25 | 167 | 11.3 | 19.3 | 0.00 | 0.00 | 0.00 | 81 | 1006.3 |
| 20260506032606 | 25 | 167 | 11.3 | 19.3 | 0.00 | 0.00 | 0.00 | 81 | 1006.3 |
| 20260506032506 | 25 | 167 | 11.3 | 19.3 | 0.00 | 0.00 | 0.00 | 81 | 1006.3 |
| 20260506032406 | 25 | 168 | 11.3 | 19.3 | 0.00 | 0.00 | 0.00 | 82 | 1006.3 |
| 20260506032307 | 25 | 168 | 11.3 | 19.3 | 0.00 | 0.00 | 0.00 | 82 | 1006.3 |
| 20260506032206 | 25 | 168 | 11.3 | 16.1 | 0.00 | 0.00 | 0.00 | 82 | 1006.3 |
| 20260506032105 | 25 | 169 | 11.3 | 17.7 | 0.00 | 0.00 | 0.00 | 82 | 1006.3 |
| 20260506032006 | 25 | 170 | 11.3 | 17.7 | 0.00 | 0.00 | 0.00 | 82 | 1006.3 |
| 20260506031905 | 25 | 168 | 11.3 | 17.7 | 0.00 | 0.00 | 0.00 | 82 | 1006.2 |
| 20260506031806 | 25 | 167 | 9.7 | 17.7 | 0.00 | 0.00 | 0.00 | 82 | 1006.2 |
| 20260506031705 | 25 | 167 | 9.7 | 17.7 | 0.00 | 0.00 | 0.00 | 82 | 1006.1 |
| 20260506031606 | 25 | 167 | 9.7 | 17.7 | 0.00 | 0.00 | 0.00 | 82 | 1006.1 |
| 20260506031505 | 25 | 167 | 9.7 | 17.7 | 0.00 | 0.00 | 0.00 | 82 | 1006.2 |
| 20260506031406 | 24 | 166 | 8.0 | 17.7 | 0.00 | 0.00 | 0.00 | 82 | 1006.2 |
| 20260506031206 | 24 | 165 | 8.0 | 17.7 | 0.00 | 0.00 | 0.00 | 82 | 1006.2 |
| 20260506031105 | 24 | 163 | 6.4 | 17.7 | 0.00 | 0.00 | 0.00 | 82 | 1006.3 |
| 20260506031006 | 24 | 162 | 6.4 | 17.7 | 0.00 | 0.00 | 0.00 | 82 | 1006.2 |
| 20260506030905 | 24 | 162 | 6.4 | 12.9 | 0.00 | 0.00 | 0.00 | 82 | 1006.2 |
| 20260506030805 | 24 | 162 | 6.4 | 12.9 | 0.00 | 0.00 | 0.00 | 82 | 1006.2 |
| 20260506030706 | 24 | 160 | 6.4 | 12.9 | 0.00 | 0.00 | 0.00 | 82 | 1006.2 |
| 20260506030505 | 24 | 158 | 4.8 | 12.9 | 0.00 | 0.00 | 0.00 | 82 | 1006.2 |
| 20260506030407 | 24 | 156 | 4.8 | 12.9 | 0.00 | 0.00 | 0.00 | 82 | 1006.1 |
| 20260506030306 | 24 | 154 | 4.8 | 12.9 | 0.00 | 0.00 | 0.00 | 82 | 1006.0 |
| 20260506030205 | 24 | 153 | 4.8 | 14.5 | 0.00 | 0.00 | 0.00 | 82 | 1006.1 |
| 20260506030105 | 24 | 152 | 6.4 | 14.5 | 0.00 | 0.00 | 0.00 | 82 | 1006.0 |
| 20260506030006 | 24 | 152 | 6.4 | 14.5 | 0.00 | 0.00 | 0.00 | 82 | 1005.9 |
| 20260506025905 | 24 | 151 | 6.4 | 14.5 | 0.00 | 0.00 | 0.00 | 82 | 1005.9 |
| 20260506025806 | 24 | 151 | 6.4 | 14.5 | 0.00 | 0.00 | 0.00 | 82 | 1005.8 |
| 20260506025705 | 24 | 151 | 6.4 | 14.5 | 0.00 | 0.00 | 0.00 | 82 | 1005.8 |
| 20260506025606 | 24 | 153 | 6.4 | 14.5 | 0.00 | 0.00 | 0.00 | 82 | 1005.8 |
| 20260506025505 | 24 | 153 | 6.4 | 14.5 | 0.00 | 0.00 | 0.00 | 82 | 1005.8 |
| 20260506025406 | 24 | 155 | 6.4 | 14.5 | 0.00 | 0.00 | 0.00 | 82 | 1005.7 |
| 20260506025306 | 24 | 157 | 6.4 | 14.5 | 0.00 | 0.00 | 0.00 | 82 | 1005.7 |
| 20260506025206 | 24 | 158 | 6.4 | 14.5 | 0.00 | 0.00 | 0.00 | 81 | 1005.7 |
| 20260506025105 | 25 | 160 | 6.4 | 14.5 | 0.00 | 0.00 | 0.00 | 81 | 1005.7 |
| 20260506025005 | 25 | 161 | 6.4 | 14.5 | 0.00 | 0.00 | 0.00 | 81 | 1005.7 |
| 20260506024906 | 25 | 162 | 6.4 | 14.5 | 0.00 | 0.00 | 0.00 | 81 | 1005.6 |
| 20260506024805 | 25 | 163 | 6.4 | 14.5 | 0.00 | 0.00 | 0.00 | 81 | 1005.7 |
| 20260506024706 | 25 | 163 | 6.4 | 14.5 | 0.00 | 0.00 | 0.00 | 81 | 1005.7 |
| 20260506024605 | 25 | 163 | 6.4 | 14.5 | 0.00 | 0.00 | 0.00 | 81 | 1005.6 |
| 20260506024506 | 25 | 163 | 6.4 | 14.5 | 0.00 | 0.00 | 0.00 | 81 | 1005.6 |
| 20260506024406 | 25 | 163 | 6.4 | 14.5 | 0.00 | 0.00 | 0.00 | 81 | 1005.6 |
| 20260506024305 | 25 | 163 | 6.4 | 12.9 | 0.00 | 0.00 | 0.00 | 81 | 1005.6 |
| 20260506024206 | 25 | 162 | 6.4 | 12.9 | 0.00 | 0.00 | 0.00 | 81 | 1005.6 |
| 20260506024106 | 25 | 161 | 6.4 | 12.9 | 0.00 | 0.00 | 0.00 | 81 | 1005.6 |
| 20260506024005 | 25 | 161 | 6.4 | 12.9 | 0.00 | 0.00 | 0.00 | 81 | 1005.6 |
| 20260506023806 | 25 | 162 | 6.4 | 12.9 | 0.00 | 0.00 | 0.00 | 81 | 1005.5 |
| 20260506023706 | 25 | 162 | 6.4 | 12.9 | 0.00 | 0.00 | 0.00 | 81 | 1005.5 |
| 20260506023606 | 25 | 162 | 6.4 | 12.9 | 0.00 | 0.00 | 0.00 | 81 | 1005.5 |
| 20260506023505 | 25 | 162 | 6.4 | 12.9 | 0.00 | 0.00 | 0.00 | 81 | 1005.5 |
| 20260506023406 | 25 | 162 | 6.4 | 12.9 | 0.00 | 0.00 | 0.00 | 81 | 1005.5 |
| 20260506023305 | 25 | 161 | 6.4 | 12.9 | 0.00 | 0.00 | 0.00 | 81 | 1005.5 |
| 20260506023206 | 25 | 160 | 6.4 | 11.3 | 0.00 | 0.00 | 0.00 | 81 | 1005.6 |
| 20260506023105 | 25 | 160 | 6.4 | 11.3 | 0.00 | 0.00 | 0.00 | 81 | 1005.5 |
| 20260506022906 | 25 | 158 | 6.4 | 11.3 | 0.00 | 0.00 | 0.00 | 81 | 1005.5 |
| 20260506022805 | 25 | 158 | 6.4 | 11.3 | 0.00 | 0.00 | 0.00 | 81 | 1005.5 |
| 20260506022705 | 25 | 158 | 6.4 | 11.3 | 0.00 | 0.00 | 0.00 | 81 | 1005.5 |
| 20260506022607 | 25 | 157 | 6.4 | 11.3 | 0.00 | 0.00 | 0.00 | 81 | 1005.4 |
| 20260506022505 | 25 | 156 | 6.4 | 11.3 | 0.00 | 0.00 | 0.00 | 81 | 1005.4 |
| 20260506022406 | 25 | 156 | 6.4 | 11.3 | 0.00 | 0.00 | 0.00 | 81 | 1005.4 |
| 20260506022306 | 25 | 157 | 6.4 | 11.3 | 0.00 | 0.00 | 0.00 | 81 | 1005.4 |
| 20260506022106 | 25 | 158 | 6.4 | 11.3 | 0.00 | 0.00 | 0.00 | 81 | 1005.4 |
| 20260506022005 | 25 | 159 | 6.4 | 11.3 | 0.00 | 0.00 | 0.00 | 81 | 1005.4 |
| 20260506021906 | 25 | 158 | 4.8 | 11.3 | 0.00 | 0.00 | 0.00 | 81 | 1005.4 |
| 20260506021806 | 25 | 156 | 4.8 | 11.3 | 0.00 | 0.00 | 0.00 | 81 | 1005.4 |
| 20260506021705 | 25 | 157 | 4.8 | 11.3 | 0.00 | 0.00 | 0.00 | 81 | 1005.3 |
| 20260506021608 | 25 | 157 | 4.8 | 11.3 | 0.00 | 0.00 | 0.00 | 81 | 1005.4 |
| 20260506021405 | 25 | 157 | 6.4 | 11.3 | 0.00 | 0.00 | 0.00 | 81 | 1005.3 |
| 20260506021306 | 25 | 156 | 4.8 | 11.3 | 0.00 | 0.00 | 0.00 | 81 | 1005.3 |
| 20260506021205 | 25 | 156 | 4.8 | 11.3 | 0.00 | 0.00 | 0.00 | 81 | 1005.3 |
| 20260506021105 | 25 | 155 | 6.4 | 11.3 | 0.00 | 0.00 | 0.00 | 81 | 1005.3 |
| 20260506021005 | 25 | 154 | 6.4 | 11.3 | 0.00 | 0.00 | 0.00 | 81 | 1005.4 |
| 20260506020906 | 25 | 155 | 4.8 | 11.3 | 0.00 | 0.00 | 0.00 | 80 | 1005.4 |
| 20260506020805 | 25 | 154 | 4.8 | 11.3 | 0.00 | 0.00 | 0.00 | 80 | 1005.4 |
| 20260506020706 | 25 | 153 | 4.8 | 11.3 | 0.00 | 0.00 | 0.00 | 80 | 1005.4 |
| 20260506020605 | 25 | 153 | 4.8 | 11.3 | 0.00 | 0.00 | 0.00 | 80 | 1005.3 |
| 20260506020505 | 25 | 152 | 6.4 | 11.3 | 0.00 | 0.00 | 0.00 | 80 | 1005.3 |
| 20260506020406 | 25 | 153 | 6.4 | 12.9 | 0.00 | 0.00 | 0.00 | 80 | 1005.2 |
| 20260506020105 | 25 | 155 | 6.4 | 12.9 | 0.00 | 0.00 | 0.00 | 80 | 1005.2 |
| 20260506015906 | 25 | 156 | 6.4 | 14.5 | 0.00 | 0.00 | 0.00 | 80 | 1005.2 |
| 20260506015805 | 25 | 156 | 6.4 | 14.5 | 0.00 | 0.00 | 0.00 | 80 | 1005.2 |
| 20260506015605 | 25 | 158 | 6.4 | 14.5 | 0.00 | 0.00 | 0.00 | 80 | 1005.1 |
| 20260506015505 | 25 | 159 | 6.4 | 14.5 | 0.00 | 0.00 | 0.00 | 80 | 1005.1 |
| 20260506015406 | 25 | 159 | 6.4 | 14.5 | 0.00 | 0.00 | 0.00 | 80 | 1005.0 |
| 20260506015306 | 25 | 159 | 8.0 | 14.5 | 0.00 | 0.00 | 0.00 | 79 | 1005.0 |
| 20260506015206 | 25 | 160 | 8.0 | 14.5 | 0.00 | 0.00 | 0.00 | 79 | 1005.0 |
| 20260506015105 | 25 | 160 | 8.0 | 14.5 | 0.00 | 0.00 | 0.00 | 79 | 1005.0 |
| 20260506015006 | 25 | 160 | 8.0 | 14.5 | 0.00 | 0.00 | 0.00 | 79 | 1005.1 |
| 20260506014805 | 25 | 159 | 8.0 | 14.5 | 0.00 | 0.00 | 0.00 | 79 | 1005.0 |
| 20260506014705 | 25 | 158 | 8.0 | 14.5 | 0.00 | 0.00 | 0.00 | 79 | 1004.9 |
| 20260506014505 | 25 | 156 | 8.0 | 14.5 | 0.00 | 0.00 | 0.00 | 79 | 1004.9 |
| 20260506014405 | 25 | 155 | 8.0 | 14.5 | 0.00 | 0.00 | 0.00 | 79 | 1004.9 |
| 20260506014305 | 25 | 154 | 8.0 | 14.5 | 0.00 | 0.00 | 0.00 | 79 | 1004.9 |
| 20260506014206 | 25 | 152 | 6.4 | 14.5 | 0.00 | 0.00 | 0.00 | 79 | 1004.8 |
| 20260506014105 | 25 | 151 | 6.4 | 14.5 | 0.00 | 0.00 | 0.00 | 79 | 1004.8 |
| 20260506014006 | 25 | 152 | 6.4 | 14.5 | 0.00 | 0.00 | 0.00 | 79 | 1004.8 |
| 20260506013805 | 25 | 151 | 6.4 | 14.5 | 0.00 | 0.00 | 0.00 | 79 | 1004.8 |
| 20260506013706 | 25 | 150 | 6.4 | 14.5 | 0.00 | 0.00 | 0.00 | 79 | 1004.8 |
| 20260506013606 | 25 | 150 | 6.4 | 14.5 | 0.00 | 0.00 | 0.00 | 79 | 1004.7 |
| 20260506013506 | 25 | 150 | 6.4 | 12.9 | 0.00 | 0.00 | 0.00 | 79 | 1004.7 |
| 20260506013405 | 25 | 150 | 6.4 | 12.9 | 0.00 | 0.00 | 0.00 | 79 | 1004.7 |
| 20260506013305 | 25 | 149 | 6.4 | 12.9 | 0.00 | 0.00 | 0.00 | 78 | 1004.8 |
| 20260506013206 | 25 | 149 | 6.4 | 12.9 | 0.00 | 0.00 | 0.00 | 78 | 1004.8 |
| 20260506013105 | 25 | 149 | 6.4 | 12.9 | 0.00 | 0.00 | 0.00 | 78 | 1004.7 |
| 20260506013006 | 25 | 147 | 6.4 | 12.9 | 0.00 | 0.00 | 0.00 | 78 | 1004.7 |
| 20260506012806 | 25 | 147 | 6.4 | 14.5 | 0.00 | 0.00 | 0.00 | 78 | 1004.7 |
| 20260506012605 | 26 | 147 | 6.4 | 14.5 | 0.00 | 0.00 | 0.00 | 78 | 1004.7 |
| 20260506012506 | 26 | 147 | 6.4 | 14.5 | 0.00 | 0.00 | 0.00 | 78 | 1004.7 |
| 20260506012405 | 26 | 147 | 6.4 | 14.5 | 0.00 | 0.00 | 0.00 | 78 | 1004.7 |
| 20260506012308 | 26 | 148 | 6.4 | 14.5 | 0.00 | 0.00 | 0.00 | 78 | 1004.6 |
| 20260506012205 | 26 | 149 | 6.4 | 14.5 | 0.00 | 0.00 | 0.00 | 77 | 1004.6 |
| 20260506012105 | 26 | 149 | 6.4 | 14.5 | 0.00 | 0.00 | 0.00 | 77 | 1004.6 |
| 20260506012005 | 26 | 149 | 6.4 | 14.5 | 0.00 | 0.00 | 0.00 | 77 | 1004.6 |
| 20260506011906 | 26 | 149 | 6.4 | 14.5 | 0.00 | 0.00 | 0.00 | 77 | 1004.6 |
| 20260506011805 | 26 | 150 | 6.4 | 12.9 | 0.00 | 0.00 | 0.00 | 77 | 1004.7 |
| 20260506011706 | 26 | 149 | 4.8 | 12.9 | 0.00 | 0.00 | 0.00 | 77 | 1004.7 |
| 20260506011605 | 26 | 149 | 4.8 | 11.3 | 0.00 | 0.00 | 0.00 | 77 | 1004.7 |
| 20260506011505 | 26 | 149 | 4.8 | 11.3 | 0.00 | 0.00 | 0.00 | 77 | 1004.7 |
| 20260506011405 | 26 | 149 | 4.8 | 11.3 | 0.00 | 0.00 | 0.00 | 77 | 1004.8 |
| 20260506011306 | 26 | 149 | 4.8 | 11.3 | 0.00 | 0.00 | 0.00 | 76 | 1004.7 |
| 20260506011106 | 26 | 146 | 4.8 | 16.1 | 0.00 | 0.00 | 0.00 | 76 | 1004.8 |
| 20260506011005 | 26 | 147 | 4.8 | 16.1 | 0.00 | 0.00 | 0.00 | 76 | 1004.7 |
| 20260506010806 | 26 | 146 | 6.4 | 16.1 | 0.00 | 0.00 | 0.00 | 75 | 1004.8 |
| 20260506010505 | 26 | 146 | 6.4 | 16.1 | 0.00 | 0.00 | 0.00 | 75 | 1004.6 |
| 20260506010405 | 26 | 145 | 8.0 | 16.1 | 0.00 | 0.00 | 0.00 | 75 | 1004.7 |
| 20260506010306 | 26 | 146 | 8.0 | 16.1 | 0.00 | 0.00 | 0.00 | 74 | 1004.6 |
| 20260506010205 | 26 | 146 | 8.0 | 16.1 | 0.00 | 0.00 | 0.00 | 74 | 1004.6 |
| 20260506010106 | 26 | 147 | 8.0 | 14.5 | 0.00 | 0.00 | 0.00 | 74 | 1004.6 |
| 20260506010006 | 26 | 148 | 9.7 | 19.3 | 0.00 | 0.00 | 0.00 | 74 | 1004.5 |
| 20260506005906 | 26 | 147 | 9.7 | 19.3 | 0.00 | 0.00 | 0.00 | 74 | 1004.5 |
| 20260506005805 | 26 | 149 | 9.7 | 19.3 | 0.00 | 0.00 | 0.00 | 74 | 1004.5 |
| 20260506005706 | 26 | 150 | 9.7 | 19.3 | 0.00 | 0.00 | 0.00 | 73 | 1004.5 |
| 20260506005406 | 27 | 153 | 9.7 | 19.3 | 0.00 | 0.00 | 0.00 | 73 | 1004.5 |
| 20260506005306 | 27 | 153 | 9.7 | 19.3 | 0.00 | 0.00 | 0.00 | 73 | 1004.5 |
| 20260506005205 | 27 | 155 | 9.7 | 19.3 | 0.00 | 0.00 | 0.00 | 73 | 1004.5 |
| 20260506005105 | 27 | 156 | 9.7 | 19.3 | 0.00 | 0.00 | 0.00 | 71 | 1004.4 |
| 20260506005006 | 27 | 155 | 9.7 | 19.3 | 0.00 | 0.00 | 0.00 | 71 | 1004.5 |
| 20260506004905 | 27 | 157 | 9.7 | 19.3 | 0.00 | 0.00 | 0.00 | 71 | 1004.4 |
| 20260506004806 | 27 | 157 | 9.7 | 19.3 | 0.00 | 0.00 | 0.00 | 71 | 1004.4 |
| 20260506004705 | 27 | 157 | 11.3 | 19.3 | 0.00 | 0.00 | 0.00 | 71 | 1004.4 |
| 20260506004606 | 27 | 156 | 11.3 | 19.3 | 0.00 | 0.00 | 0.00 | 71 | 1004.4 |
| 20260506004405 | 27 | 156 | 11.3 | 19.3 | 0.00 | 0.00 | 0.00 | 70 | 1004.4 |
| 20260506004306 | 27 | 157 | 11.3 | 19.3 | 0.00 | 0.00 | 0.00 | 70 | 1004.4 |
| 20260506004205 | 27 | 157 | 11.3 | 19.3 | 0.00 | 0.00 | 0.00 | 70 | 1004.5 |
| 20260506004105 | 27 | 157 | 11.3 | 25.7 | 0.00 | 0.00 | 0.00 | 70 | 1004.4 |
| 20260506003905 | 27 | 157 | 12.9 | 25.7 | 0.00 | 0.00 | 0.00 | 70 | 1004.4 |
| 20260506003806 | 27 | 157 | 12.9 | 25.7 | 0.00 | 0.00 | 0.00 | 69 | 1004.5 |
| 20260506003605 | 27 | 157 | 12.9 | 25.7 | 0.00 | 0.00 | 0.00 | 69 | 1004.4 |
| 20260506003505 | 27 | 158 | 12.9 | 25.7 | 0.00 | 0.00 | 0.00 | 69 | 1004.4 |
| 20260506003306 | 27 | 160 | 12.9 | 25.7 | 0.00 | 0.00 | 0.00 | 68 | 1004.5 |
| 20260506003206 | 27 | 160 | 12.9 | 25.7 | 0.00 | 0.00 | 0.00 | 68 | 1004.5 |
| 20260506003006 | 27 | 160 | 12.9 | 22.5 | 0.00 | 0.00 | 0.00 | 68 | 1004.5 |
| 20260506002905 | 27 | 159 | 12.9 | 22.5 | 0.00 | 0.00 | 0.00 | 68 | 1004.5 |
| 20260506002806 | 27 | 159 | 12.9 | 22.5 | 0.00 | 0.00 | 0.00 | 68 | 1004.5 |
| 20260506002605 | 27 | 160 | 14.5 | 22.5 | 0.00 | 0.00 | 0.00 | 68 | 1004.5 |
| 20260506002505 | 27 | 161 | 14.5 | 22.5 | 0.00 | 0.00 | 0.00 | 68 | 1004.5 |
| 20260506002405 | 28 | 160 | 14.5 | 22.5 | 0.00 | 0.00 | 0.00 | 68 | 1004.5 |
| 20260506002205 | 28 | 157 | 12.9 | 22.5 | 0.00 | 0.00 | 0.00 | 68 | 1004.6 |
| 20260506002105 | 28 | 158 | 12.9 | 22.5 | 0.00 | 0.00 | 0.00 | 68 | 1004.5 |
| 20260506001905 | 28 | 157 | 14.5 | 25.7 | 0.00 | 0.00 | 0.00 | 68 | 1004.5 |
| 20260506001806 | 28 | 157 | 14.5 | 25.7 | 0.00 | 0.00 | 0.00 | 68 | 1004.5 |
| 20260506001705 | 28 | 157 | 14.5 | 25.7 | 0.00 | 0.00 | 0.00 | 68 | 1004.5 |
| 20260506001505 | 28 | 155 | 14.5 | 25.7 | 0.00 | 0.00 | 0.00 | 68 | 1004.5 |
| 20260506001405 | 28 | 155 | 14.5 | 25.7 | 0.00 | 0.00 | 0.00 | 68 | 1004.5 |
| 20260506001305 | 28 | 155 | 14.5 | 25.7 | 0.00 | 0.00 | 0.00 | 68 | 1004.5 |
| 20260506001206 | 28 | 158 | 14.5 | 25.7 | 0.00 | 0.00 | 0.00 | 68 | 1004.5 |
| 20260506001105 | 28 | 158 | 14.5 | 25.7 | 0.00 | 0.00 | 0.00 | 67 | 1004.5 |
| 20260506001006 | 28 | 159 | 14.5 | 25.7 | 0.00 | 0.00 | 0.00 | 67 | 1004.5 |
| 20260506000905 | 28 | 159 | 14.5 | 25.7 | 0.00 | 0.00 | 0.00 | 67 | 1004.5 |
| 20260506000806 | 28 | 159 | 14.5 | 24.1 | 0.00 | 0.00 | 0.00 | 67 | 1004.5 |
| 20260506000705 | 28 | 160 | 14.5 | 24.1 | 0.00 | 0.00 | 0.00 | 67 | 1004.5 |
| 20260506000606 | 28 | 160 | 14.5 | 24.1 | 0.00 | 0.00 | 0.00 | 67 | 1004.6 |
| 20260506000505 | 28 | 158 | 12.9 | 22.5 | 0.00 | 0.00 | 0.00 | 67 | 1004.6 |
| 20260506000405 | 28 | 159 | 12.9 | 22.5 | 0.00 | 0.00 | 0.00 | 67 | 1004.6 |
| 20260506000305 | 28 | 159 | 12.9 | 22.5 | 0.00 | 0.00 | 0.00 | 67 | 1004.6 |
| 20260506000105 | 28 | 155 | 12.9 | 20.9 | 0.00 | 0.00 | 0.00 | 67 | 1004.5 |
| 20260506000005 | 28 | 154 | 11.3 | 20.9 | 0.00 | 0.00 | 0.00 | 68 | 1004.6 |
| 20260505235905 | 28 | 155 | 11.3 | 19.3 | 0.00 | 0.00 | 0.00 | 68 | 1004.5 |
| 20260505235806 | 28 | 156 | 11.3 | 19.3 | 0.00 | 0.00 | 0.00 | 68 | 1004.5 |
| 20260505235705 | 28 | 155 | 11.3 | 19.3 | 0.00 | 0.00 | 0.00 | 68 | 1004.5 |
| 20260505235605 | 28 | 154 | 11.3 | 19.3 | 0.00 | 0.00 | 0.00 | 68 | 1004.5 |
| 20260505235505 | 28 | 154 | 11.3 | 19.3 | 0.00 | 0.00 | 0.00 | 68 | 1004.5 |
| 20260505235406 | 28 | 152 | 11.3 | 19.3 | 0.00 | 0.00 | 0.00 | 68 | 1004.5 |
| 20260505235305 | 28 | 152 | 11.3 | 19.3 | 0.00 | 0.00 | 0.00 | 68 | 1004.5 |
| 20260505235206 | 28 | 153 | 11.3 | 19.3 | 0.00 | 0.00 | 0.00 | 68 | 1004.5 |
| 20260505235105 | 28 | 154 | 12.9 | 19.3 | 0.00 | 0.00 | 0.00 | 68 | 1004.5 |
| 20260505234806 | 28 | 152 | 12.9 | 24.1 | 0.00 | 0.00 | 0.00 | 68 | 1004.6 |
| 20260505234705 | 28 | 152 | 12.9 | 24.1 | 0.00 | 0.00 | 0.00 | 68 | 1004.6 |
| 20260505234605 | 28 | 156 | 12.9 | 24.1 | 0.00 | 0.00 | 0.00 | 68 | 1004.5 |
| 20260505234505 | 28 | 159 | 12.9 | 24.1 | 0.00 | 0.00 | 0.00 | 68 | 1004.5 |
| 20260505234405 | 28 | 160 | 12.9 | 24.1 | 0.00 | 0.00 | 0.00 | 68 | 1004.5 |
| 20260505234305 | 28 | 160 | 12.9 | 24.1 | 0.00 | 0.00 | 0.00 | 68 | 1004.5 |
| 20260505234205 | 28 | 160 | 12.9 | 24.1 | 0.00 | 0.00 | 0.00 | 68 | 1004.5 |
| 20260505234105 | 28 | 160 | 12.9 | 24.1 | 0.00 | 0.00 | 0.00 | 68 | 1004.5 |
| 20260505234005 | 28 | 160 | 12.9 | 20.9 | 0.00 | 0.00 | 0.00 | 68 | 1004.5 |
| 20260505233906 | 28 | 159 | 12.9 | 20.9 | 0.00 | 0.00 | 0.00 | 68 | 1004.5 |
| 20260505233806 | 28 | 159 | 12.9 | 20.9 | 0.00 | 0.00 | 0.00 | 67 | 1004.5 |
| 20260505233705 | 28 | 161 | 11.3 | 20.9 | 0.00 | 0.00 | 0.00 | 67 | 1004.5 |
| 20260505233505 | 28 | 158 | 11.3 | 20.9 | 0.00 | 0.00 | 0.00 | 68 | 1004.5 |
| 20260505233406 | 28 | 157 | 11.3 | 20.9 | 0.00 | 0.00 | 0.00 | 67 | 1004.5 |
| 20260505233305 | 28 | 157 | 11.3 | 20.9 | 0.00 | 0.00 | 0.00 | 68 | 1004.5 |
| 20260505233206 | 28 | 155 | 9.7 | 19.3 | 0.00 | 0.00 | 0.00 | 67 | 1004.5 |
| 20260505233105 | 28 | 155 | 11.3 | 19.3 | 0.00 | 0.00 | 0.00 | 67 | 1004.5 |
| 20260505233006 | 28 | 158 | 11.3 | 19.3 | 0.00 | 0.00 | 0.00 | 67 | 1004.4 |
| 20260505232806 | 28 | 159 | 11.3 | 20.9 | 0.00 | 0.00 | 0.00 | 67 | 1004.5 |
| 20260505232706 | 28 | 158 | 11.3 | 20.9 | 0.00 | 0.00 | 0.00 | 67 | 1004.5 |
| 20260505232606 | 28 | 157 | 11.3 | 20.9 | 0.00 | 0.00 | 0.00 | 67 | 1004.5 |
| 20260505232505 | 28 | 159 | 12.9 | 24.1 | 0.00 | 0.00 | 0.00 | 67 | 1004.5 |
| 20260505232406 | 28 | 159 | 12.9 | 24.1 | 0.00 | 0.00 | 0.00 | 67 | 1004.5 |
| 20260505232305 | 28 | 159 | 12.9 | 25.7 | 0.00 | 0.00 | 0.00 | 67 | 1004.5 |
| 20260505232205 | 28 | 158 | 12.9 | 25.7 | 0.00 | 0.00 | 0.00 | 67 | 1004.5 |
| 20260505232105 | 28 | 158 | 12.9 | 25.7 | 0.00 | 0.00 | 0.00 | 66 | 1004.4 |
| 20260505232005 | 28 | 156 | 12.9 | 25.7 | 0.00 | 0.00 | 0.00 | 66 | 1004.4 |
| 20260505231605 | 28 | 156 | 12.9 | 25.7 | 0.00 | 0.00 | 0.00 | 66 | 1004.3 |
| 20260505231506 | 28 | 156 | 12.9 | 25.7 | 0.00 | 0.00 | 0.00 | 67 | 1004.2 |
| 20260505231405 | 28 | 157 | 11.3 | 25.7 | 0.00 | 0.00 | 0.00 | 67 | 1004.2 |
| 20260505231305 | 28 | 159 | 11.3 | 22.5 | 0.00 | 0.00 | 0.00 | 67 | 1004.2 |
| 20260505231205 | 28 | 162 | 12.9 | 20.9 | 0.00 | 0.00 | 0.00 | 67 | 1004.2 |
| 20260505231105 | 28 | 164 | 12.9 | 20.9 | 0.00 | 0.00 | 0.00 | 67 | 1004.2 |
| 20260505231005 | 28 | 165 | 12.9 | 19.3 | 0.00 | 0.00 | 0.00 | 67 | 1004.2 |
| 20260505230905 | 28 | 166 | 12.9 | 19.3 | 0.00 | 0.00 | 0.00 | 67 | 1004.2 |
| 20260505230805 | 28 | 165 | 12.9 | 20.9 | 0.00 | 0.00 | 0.00 | 67 | 1004.2 |
| 20260505230705 | 28 | 164 | 12.9 | 22.5 | 0.00 | 0.00 | 0.00 | 67 | 1004.2 |
| 20260505230605 | 28 | 163 | 12.9 | 22.5 | 0.00 | 0.00 | 0.00 | 67 | 1004.2 |
| 20260505230505 | 28 | 162 | 14.5 | 22.5 | 0.00 | 0.00 | 0.00 | 68 | 1004.2 |
| 20260505230406 | 28 | 161 | 14.5 | 22.5 | 0.00 | 0.00 | 0.00 | 67 | 1004.2 |
| 20260505230305 | 28 | 158 | 14.5 | 24.1 | 0.00 | 0.00 | 0.00 | 67 | 1004.2 |
| 20260505230006 | 28 | 153 | 12.9 | 24.1 | 0.00 | 0.00 | 0.00 | 67 | 1004.2 |
| 20260505225905 | 28 | 151 | 14.5 | 24.1 | 0.00 | 0.00 | 0.00 | 67 | 1004.1 |
| 20260505225805 | 28 | 150 | 14.5 | 25.7 | 0.00 | 0.00 | 0.00 | 67 | 1004.1 |
| 20260505225705 | 28 | 151 | 12.9 | 25.7 | 0.00 | 0.00 | 0.00 | 67 | 1004.1 |
| 20260505225606 | 28 | 150 | 14.5 | 25.7 | 0.00 | 0.00 | 0.00 | 66 | 1004.1 |
| 20260505225405 | 28 | 147 | 14.5 | 25.7 | 0.00 | 0.00 | 0.00 | 66 | 1004.1 |
| 20260505225306 | 29 | 147 | 14.5 | 25.7 | 0.00 | 0.00 | 0.00 | 66 | 1004.1 |
| 20260505225205 | 29 | 146 | 14.5 | 25.7 | 0.00 | 0.00 | 0.00 | 66 | 1004.1 |
| 20260505225105 | 29 | 146 | 14.5 | 25.7 | 0.00 | 0.00 | 0.00 | 65 | 1004.1 |
| 20260505225005 | 29 | 148 | 14.5 | 25.7 | 0.00 | 0.00 | 0.00 | 65 | 1004.1 |
| 20260505224905 | 29 | 149 | 14.5 | 25.7 | 0.00 | 0.00 | 0.00 | 65 | 1004.2 |
| 20260505224805 | 29 | 151 | 14.5 | 25.7 | 0.00 | 0.00 | 0.00 | 65 | 1004.2 |
| 20260505224705 | 29 | 153 | 14.5 | 25.7 | 0.00 | 0.00 | 0.00 | 65 | 1004.2 |
| 20260505224606 | 29 | 154 | 14.5 | 25.7 | 0.00 | 0.00 | 0.00 | 65 | 1004.2 |
| 20260505224505 | 29 | 156 | 12.9 | 25.7 | 0.00 | 0.00 | 0.00 | 65 | 1004.2 |
| 20260505224407 | 30 | 157 | 12.9 | 22.5 | 0.00 | 0.00 | 0.00 | 65 | 1004.2 |
| 20260505224305 | 30 | 158 | 12.9 | 22.5 | 0.00 | 0.00 | 0.00 | 65 | 1004.2 |
| 20260505224206 | 30 | 161 | 14.5 | 22.5 | 0.00 | 0.00 | 0.00 | 65 | 1004.3 |
| 20260505224105 | 30 | 163 | 14.5 | 22.5 | 0.00 | 0.00 | 0.00 | 65 | 1004.3 |
| 20260505224006 | 30 | 162 | 12.9 | 22.5 | 0.00 | 0.00 | 0.00 | 65 | 1004.3 |
| 20260505223906 | 30 | 161 | 12.9 | 22.5 | 0.00 | 0.00 | 0.00 | 65 | 1004.3 |
| 20260505223805 | 30 | 162 | 12.9 | 20.9 | 0.00 | 0.00 | 0.00 | 65 | 1004.3 |
| 20260505223605 | 30 | 160 | 12.9 | 25.7 | 0.00 | 0.00 | 0.00 | 65 | 1004.3 |
| 20260505223506 | 30 | 157 | 14.5 | 25.7 | 0.00 | 0.00 | 0.00 | 65 | 1004.3 |
| 20260505223405 | 30 | 158 | 14.5 | 25.7 | 0.00 | 0.00 | 0.00 | 65 | 1004.4 |
| 20260505223306 | 30 | 158 | 14.5 | 25.7 | 0.00 | 0.00 | 0.00 | 65 | 1004.3 |
| 20260505223206 | 30 | 157 | 12.9 | 25.7 | 0.00 | 0.00 | 0.00 | 65 | 1004.3 |
| 20260505223105 | 30 | 156 | 12.9 | 25.7 | 0.00 | 0.00 | 0.00 | 65 | 1004.3 |
| 20260505222705 | 30 | 162 | 12.9 | 25.7 | 0.00 | 0.00 | 0.00 | 65 | 1004.2 |
| 20260505222606 | 30 | 163 | 12.9 | 24.1 | 0.00 | 0.00 | 0.00 | 65 | 1004.2 |
| 20260505222505 | 30 | 167 | 12.9 | 24.1 | 0.00 | 0.00 | 0.00 | 64 | 1004.2 |
| 20260505222306 | 30 | 172 | 12.9 | 22.5 | 0.00 | 0.00 | 0.00 | 65 | 1004.1 |
| 20260505222205 | 30 | 174 | 12.9 | 22.5 | 0.00 | 0.00 | 0.00 | 64 | 1004.1 |
| 20260505222105 | 30 | 172 | 12.9 | 22.5 | 0.00 | 0.00 | 0.00 | 64 | 1004.2 |
| 20260505222005 | 30 | 170 | 12.9 | 22.5 | 0.00 | 0.00 | 0.00 | 63 | 1004.2 |
| 20260505221905 | 30 | 168 | 12.9 | 22.5 | 0.00 | 0.00 | 0.00 | 63 | 1004.1 |
| 20260505221805 | 30 | 169 | 12.9 | 22.5 | 0.00 | 0.00 | 0.00 | 63 | 1004.1 |
| 20260505221605 | 30 | 167 | 12.9 | 24.1 | 0.00 | 0.00 | 0.00 | 63 | 1004.1 |
| 20260505221506 | 30 | 166 | 11.3 | 24.1 | 0.00 | 0.00 | 0.00 | 63 | 1004.1 |
| 20260505221405 | 30 | 167 | 12.9 | 24.1 | 0.00 | 0.00 | 0.00 | 64 | 1004.0 |
| 20260505221305 | 30 | 168 | 12.9 | 24.1 | 0.00 | 0.00 | 0.00 | 64 | 1004.0 |
| 20260505221205 | 30 | 167 | 12.9 | 24.1 | 0.00 | 0.00 | 0.00 | 64 | 1004.0 |
| 20260505221105 | 30 | 169 | 12.9 | 24.1 | 0.00 | 0.00 | 0.00 | 64 | 1004.0 |
| 20260505221005 | 30 | 173 | 12.9 | 24.1 | 0.00 | 0.00 | 0.00 | 64 | 1004.0 |
| 20260505220905 | 30 | 177 | 12.9 | 24.1 | 0.00 | 0.00 | 0.00 | 63 | 1004.0 |
| 20260505220805 | 30 | 176 | 12.9 | 24.1 | 0.00 | 0.00 | 0.00 | 63 | 1004.0 |
| 20260505220705 | 30 | 181 | 12.9 | 24.1 | 0.00 | 0.00 | 0.00 | 62 | 1004.0 |
| 20260505220605 | 30 | 183 | 12.9 | 22.5 | 0.00 | 0.00 | 0.00 | 61 | 1004.0 |
| 20260505220506 | 30 | 184 | 12.9 | 22.5 | 0.00 | 0.00 | 0.00 | 60 | 1004.1 |
| 20260505220405 | 30 | 184 | 12.9 | 22.5 | 0.00 | 0.00 | 0.00 | 60 | 1004.1 |
| 20260505220306 | 30 | 184 | 12.9 | 20.9 | 0.00 | 0.00 | 0.00 | 60 | 1004.1 |
| 20260505220105 | 30 | 185 | 12.9 | 22.5 | 0.00 | 0.00 | 0.00 | 60 | 1004.0 |
| 20260505220006 | 30 | 185 | 12.9 | 22.5 | 0.00 | 0.00 | 0.00 | 60 | 1004.1 |
| 20260505215805 | 30 | 186 | 11.3 | 22.5 | 0.00 | 0.00 | 0.00 | 60 | 1004.1 |
| 20260505215605 | 30 | 187 | 11.3 | 22.5 | 0.00 | 0.00 | 0.00 | 60 | 1004.2 |
| 20260505215505 | 30 | 188 | 11.3 | 22.5 | 0.00 | 0.00 | 0.00 | 60 | 1004.2 |
| 20260505215406 | 30 | 190 | 11.3 | 22.5 | 0.00 | 0.00 | 0.00 | 60 | 1004.2 |
| 20260505215306 | 30 | 193 | 11.3 | 22.5 | 0.00 | 0.00 | 0.00 | 60 | 1004.2 |
| 20260505215005 | 30 | 192 | 12.9 | 19.3 | 0.00 | 0.00 | 0.00 | 59 | 1004.2 |
| 20260505214907 | 30 | 190 | 12.9 | 19.3 | 0.00 | 0.00 | 0.00 | 59 | 1004.2 |
| 20260505214806 | 31 | 189 | 12.9 | 19.3 | 0.00 | 0.00 | 0.00 | 59 | 1004.2 |
| 20260505214705 | 31 | 188 | 12.9 | 19.3 | 0.00 | 0.00 | 0.00 | 59 | 1004.3 |
| 20260505214606 | 31 | 188 | 12.9 | 20.9 | 0.00 | 0.00 | 0.00 | 60 | 1004.3 |
| 20260505214505 | 31 | 188 | 12.9 | 20.9 | 0.00 | 0.00 | 0.00 | 60 | 1004.4 |
| 20260505214405 | 31 | 185 | 12.9 | 20.9 | 0.00 | 0.00 | 0.00 | 60 | 1004.4 |
| 20260505214305 | 31 | 183 | 12.9 | 20.9 | 0.00 | 0.00 | 0.00 | 60 | 1004.5 |
| 20260505214205 | 31 | 179 | 12.9 | 20.9 | 0.00 | 0.00 | 0.00 | 60 | 1004.5 |
| 20260505214105 | 31 | 181 | 12.9 | 20.9 | 0.00 | 0.00 | 0.00 | 60 | 1004.5 |
| 20260505214006 | 31 | 177 | 12.9 | 20.9 | 0.00 | 0.00 | 0.00 | 59 | 1004.5 |
| 20260505213905 | 31 | 179 | 11.3 | 20.9 | 0.00 | 0.00 | 0.00 | 59 | 1004.5 |
| 20260505213805 | 31 | 179 | 11.3 | 20.9 | 0.00 | 0.00 | 0.00 | 59 | 1004.5 |
| 20260505213605 | 31 | 174 | 11.3 | 19.3 | 0.00 | 0.00 | 0.00 | 61 | 1004.5 |
| 20260505213505 | 31 | 171 | 11.3 | 19.3 | 0.00 | 0.00 | 0.00 | 60 | 1004.4 |
| 20260505213405 | 31 | 169 | 11.3 | 19.3 | 0.00 | 0.00 | 0.00 | 60 | 1004.5 |
| 20260505213305 | 31 | 169 | 11.3 | 19.3 | 0.00 | 0.00 | 0.00 | 60 | 1004.5 |
| 20260505213205 | 30 | 168 | 11.3 | 19.3 | 0.00 | 0.00 | 0.00 | 60 | 1004.5 |
| 20260505213005 | 30 | 166 | 11.3 | 19.3 | 0.00 | 0.00 | 0.00 | 60 | 1004.5 |
| 20260505212905 | 30 | 165 | 11.3 | 19.3 | 0.00 | 0.00 | 0.00 | 61 | 1004.5 |
| 20260505212805 | 30 | 168 | 11.3 | 19.3 | 0.00 | 0.00 | 0.00 | 60 | 1004.5 |
| 20260505212705 | 30 | 173 | 11.3 | 20.9 | 0.00 | 0.00 | 0.00 | 60 | 1004.5 |
| 20260505212606 | 30 | 176 | 12.9 | 20.9 | 0.00 | 0.00 | 0.00 | 60 | 1004.5 |
| 20260505212406 | 30 | 184 | 12.9 | 20.9 | 0.00 | 0.00 | 0.00 | 60 | 1004.5 |
| 20260505212306 | 30 | 188 | 12.9 | 27.4 | 0.00 | 0.00 | 0.00 | 60 | 1004.5 |
| 20260505212206 | 30 | 191 | 14.5 | 27.4 | 0.00 | 0.00 | 0.00 | 60 | 1004.5 |
| 20260505212105 | 30 | 192 | 14.5 | 27.4 | 0.00 | 0.00 | 0.00 | 60 | 1004.6 |
| 20260505212005 | 30 | 192 | 14.5 | 27.4 | 0.00 | 0.00 | 0.00 | 60 | 1004.6 |
| 20260505211905 | 30 | 187 | 14.5 | 27.4 | 0.00 | 0.00 | 0.00 | 61 | 1004.6 |
| 20260505211805 | 30 | 184 | 16.1 | 27.4 | 0.00 | 0.00 | 0.00 | 60 | 1004.7 |
| 20260505211705 | 30 | 179 | 16.1 | 27.4 | 0.00 | 0.00 | 0.00 | 60 | 1004.7 |
| 20260505211605 | 30 | 177 | 16.1 | 27.4 | 0.00 | 0.00 | 0.00 | 61 | 1004.7 |
| 20260505211405 | 30 | 176 | 14.5 | 27.4 | 0.00 | 0.00 | 0.00 | 59 | 1004.6 |
| 20260505211307 | 30 | 173 | 14.5 | 27.4 | 0.00 | 0.00 | 0.00 | 60 | 1004.7 |
| 20260505211205 | 30 | 172 | 12.9 | 27.4 | 0.00 | 0.00 | 0.00 | 61 | 1004.7 |
| 20260505211105 | 30 | 171 | 14.5 | 27.4 | 0.00 | 0.00 | 0.00 | 61 | 1004.7 |
| 20260505211005 | 30 | 174 | 12.9 | 27.4 | 0.00 | 0.00 | 0.00 | 60 | 1004.7 |
| 20260505210905 | 30 | 178 | 12.9 | 27.4 | 0.00 | 0.00 | 0.00 | 59 | 1004.6 |
| 20260505210805 | 30 | 181 | 11.3 | 27.4 | 0.00 | 0.00 | 0.00 | 59 | 1004.7 |
| 20260505210605 | 31 | 184 | 11.3 | 24.1 | 0.00 | 0.00 | 0.00 | 59 | 1004.8 |
| 20260505210305 | 31 | 179 | 12.9 | 24.1 | 0.00 | 0.00 | 0.00 | 61 | 1004.8 |
| 20260505210205 | 31 | 178 | 12.9 | 25.7 | 0.00 | 0.00 | 0.00 | 60 | 1004.8 |
| 20260505210106 | 31 | 179 | 12.9 | 25.7 | 0.00 | 0.00 | 0.00 | 61 | 1004.8 |
| 20260505210005 | 30 | 178 | 12.9 | 25.7 | 0.00 | 0.00 | 0.00 | 61 | 1004.8 |
| 20260505205905 | 30 | 176 | 14.5 | 25.7 | 0.00 | 0.00 | 0.00 | 61 | 1004.8 |
| 20260505205805 | 30 | 175 | 14.5 | 25.7 | 0.00 | 0.00 | 0.00 | 61 | 1004.8 |
| 20260505205705 | 30 | 173 | 14.5 | 25.7 | 0.00 | 0.00 | 0.00 | 61 | 1004.8 |
| 20260505205605 | 30 | 171 | 16.1 | 25.7 | 0.00 | 0.00 | 0.00 | 61 | 1004.8 |
| 20260505205505 | 30 | 171 | 16.1 | 25.7 | 0.00 | 0.00 | 0.00 | 61 | 1004.8 |
| 20260505205405 | 30 | 171 | 16.1 | 25.7 | 0.00 | 0.00 | 0.00 | 60 | 1004.9 |
| 20260505205205 | 30 | 176 | 14.5 | 25.7 | 0.00 | 0.00 | 0.00 | 60 | 1004.9 |
| 20260505205104 | 30 | 175 | 14.5 | 24.1 | 0.00 | 0.00 | 0.00 | 59 | 1004.9 |
| 20260505205005 | 30 | 177 | 16.1 | 30.6 | 0.00 | 0.00 | 0.00 | 59 | 1004.9 |
| 20260505204905 | 30 | 179 | 14.5 | 30.6 | 0.00 | 0.00 | 0.00 | 59 | 1004.9 |
| 20260505204805 | 30 | 181 | 14.5 | 30.6 | 0.00 | 0.00 | 0.00 | 59 | 1004.8 |
| 20260505204705 | 30 | 184 | 14.5 | 30.6 | 0.00 | 0.00 | 0.00 | 59 | 1004.8 |
| 20260505204605 | 30 | 189 | 14.5 | 30.6 | 0.00 | 0.00 | 0.00 | 59 | 1004.9 |
| 20260505204505 | 31 | 193 | 14.5 | 30.6 | 0.00 | 0.00 | 0.00 | 60 | 1004.9 |
| 20260505204305 | 31 | 198 | 14.5 | 30.6 | 0.00 | 0.00 | 0.00 | 60 | 1004.9 |
| 20260505204205 | 31 | 198 | 16.1 | 30.6 | 0.00 | 0.00 | 0.00 | 60 | 1005.0 |
| 20260505204105 | 31 | 199 | 16.1 | 30.6 | 0.00 | 0.00 | 0.00 | 60 | 1005.0 |
| 20260505204005 | 30 | 194 | 16.1 | 30.6 | 0.00 | 0.00 | 0.00 | 59 | 1004.9 |
| 20260505203805 | 30 | 193 | 16.1 | 30.6 | 0.00 | 0.00 | 0.00 | 59 | 1005.0 |
| 20260505203704 | 30 | 193 | 16.1 | 30.6 | 0.00 | 0.00 | 0.00 | 59 | 1005.0 |
| 20260505203505 | 30 | 187 | 16.1 | 30.6 | 0.00 | 0.00 | 0.00 | 60 | 1005.0 |
| 20260505203405 | 30 | 186 | 16.1 | 30.6 | 0.00 | 0.00 | 0.00 | 60 | 1005.0 |
| 20260505203305 | 30 | 186 | 16.1 | 30.6 | 0.00 | 0.00 | 0.00 | 60 | 1005.0 |
| 20260505203206 | 30 | 183 | 16.1 | 30.6 | 0.00 | 0.00 | 0.00 | 60 | 1004.9 |
| 20260505203105 | 30 | 182 | 16.1 | 30.6 | 0.00 | 0.00 | 0.00 | 60 | 1004.9 |
| 20260505203006 | 30 | 186 | 16.1 | 25.7 | 0.00 | 0.00 | 0.00 | 60 | 1005.0 |
| 20260505202904 | 30 | 186 | 16.1 | 25.7 | 0.00 | 0.00 | 0.00 | 59 | 1005.0 |
| 20260505202805 | 30 | 185 | 14.5 | 25.7 | 0.00 | 0.00 | 0.00 | 59 | 1005.1 |
| 20260505202705 | 31 | 183 | 14.5 | 25.7 | 0.00 | 0.00 | 0.00 | 59 | 1005.0 |
| 20260505202605 | 31 | 183 | 14.5 | 25.7 | 0.00 | 0.00 | 0.00 | 59 | 1005.1 |
| 20260505202505 | 31 | 184 | 14.5 | 25.7 | 0.00 | 0.00 | 0.00 | 59 | 1005.1 |
| 20260505202405 | 31 | 181 | 14.5 | 25.7 | 0.00 | 0.00 | 0.00 | 59 | 1005.1 |
| 20260505202306 | 31 | 177 | 14.5 | 25.7 | 0.00 | 0.00 | 0.00 | 59 | 1005.2 |
| 20260505202206 | 31 | 176 | 14.5 | 25.7 | 0.00 | 0.00 | 0.00 | 59 | 1005.2 |
| 20260505202104 | 31 | 175 | 14.5 | 25.7 | 0.00 | 0.00 | 0.00 | 59 | 1005.2 |
| 20260505201905 | 31 | 174 | 12.9 | 25.7 | 0.00 | 0.00 | 0.00 | 60 | 1005.0 |
| 20260505201805 | 31 | 177 | 12.9 | 25.7 | 0.00 | 0.00 | 0.00 | 60 | 1005.0 |
| 20260505201705 | 31 | 181 | 12.9 | 25.7 | 0.00 | 0.00 | 0.00 | 60 | 1005.0 |
| 20260505201606 | 31 | 179 | 14.5 | 25.7 | 0.00 | 0.00 | 0.00 | 60 | 1005.0 |
| 20260505201505 | 31 | 179 | 14.5 | 25.7 | 0.00 | 0.00 | 0.00 | 59 | 1005.1 |
| 20260505201405 | 31 | 184 | 14.5 | 25.7 | 0.00 | 0.00 | 0.00 | 59 | 1005.1 |
| 20260505201305 | 31 | 186 | 14.5 | 25.7 | 0.00 | 0.00 | 0.00 | 59 | 1005.1 |
| 20260505201205 | 31 | 186 | 14.5 | 25.7 | 0.00 | 0.00 | 0.00 | 60 | 1005.1 |
| 20260505201105 | 31 | 187 | 14.5 | 24.1 | 0.00 | 0.00 | 0.00 | 60 | 1005.1 |
| 20260505201005 | 30 | 188 | 14.5 | 24.1 | 0.00 | 0.00 | 0.00 | 61 | 1005.1 |
| 20260505200905 | 30 | 185 | 14.5 | 24.1 | 0.00 | 0.00 | 0.00 | 61 | 1005.2 |
| 20260505200805 | 30 | 182 | 16.1 | 25.7 | 0.00 | 0.00 | 0.00 | 60 | 1005.2 |
| 20260505200705 | 30 | 178 | 16.1 | 27.4 | 0.00 | 0.00 | 0.00 | 60 | 1005.3 |
| 20260505200605 | 30 | 178 | 16.1 | 27.4 | 0.00 | 0.00 | 0.00 | 59 | 1005.3 |
| 20260505200505 | 30 | 179 | 16.1 | 27.4 | 0.00 | 0.00 | 0.00 | 61 | 1005.3 |
| 20260505200405 | 30 | 176 | 16.1 | 27.4 | 0.00 | 0.00 | 0.00 | 61 | 1005.4 |
| 20260505200305 | 30 | 176 | 17.7 | 27.4 | 0.00 | 0.00 | 0.00 | 60 | 1005.3 |
| 20260505200105 | 30 | 177 | 17.7 | 27.4 | 0.00 | 0.00 | 0.00 | 61 | 1005.4 |
| 20260505195805 | 30 | 174 | 16.1 | 27.4 | 0.00 | 0.00 | 0.00 | 62 | 1005.4 |
| 20260505195705 | 30 | 174 | 17.7 | 25.7 | 0.00 | 0.00 | 0.00 | 62 | 1005.3 |
| 20260505195605 | 30 | 175 | 17.7 | 25.7 | 0.00 | 0.00 | 0.00 | 62 | 1005.3 |
| 20260505195505 | 30 | 173 | 17.7 | 25.7 | 0.00 | 0.00 | 0.00 | 62 | 1005.4 |
| 20260505195405 | 30 | 174 | 17.7 | 27.4 | 0.00 | 0.00 | 0.00 | 62 | 1005.3 |
| 20260505195305 | 30 | 173 | 16.1 | 27.4 | 0.00 | 0.00 | 0.00 | 62 | 1005.4 |
| 20260505195205 | 30 | 173 | 17.7 | 27.4 | 0.00 | 0.00 | 0.00 | 62 | 1005.3 |
| 20260505195105 | 30 | 171 | 17.7 | 27.4 | 0.00 | 0.00 | 0.00 | 62 | 1005.4 |
| 20260505195005 | 30 | 174 | 16.1 | 27.4 | 0.00 | 0.00 | 0.00 | 61 | 1005.3 |
| 20260505194906 | 30 | 177 | 16.1 | 27.4 | 0.00 | 0.00 | 0.00 | 61 | 1005.3 |
| 20260505194805 | 30 | 184 | 16.1 | 27.4 | 0.00 | 0.00 | 0.00 | 60 | 1005.3 |
| 20260505194705 | 30 | 187 | 14.5 | 27.4 | 0.00 | 0.00 | 0.00 | 62 | 1005.3 |
| 20260505194605 | 30 | 188 | 14.5 | 27.4 | 0.00 | 0.00 | 0.00 | 61 | 1005.3 |
| 20260505194505 | 30 | 189 | 12.9 | 27.4 | 0.00 | 0.00 | 0.00 | 60 | 1005.3 |
| 20260505194405 | 30 | 191 | 12.9 | 25.7 | 0.00 | 0.00 | 0.00 | 62 | 1005.4 |
| 20260505194305 | 30 | 193 | 12.9 | 22.5 | 0.00 | 0.00 | 0.00 | 61 | 1005.4 |
| 20260505194205 | 30 | 196 | 12.9 | 22.5 | 0.00 | 0.00 | 0.00 | 61 | 1005.4 |
| 20260505194104 | 30 | 198 | 12.9 | 22.5 | 0.00 | 0.00 | 0.00 | 61 | 1005.4 |
| 20260505194005 | 30 | 197 | 12.9 | 22.5 | 0.00 | 0.00 | 0.00 | 62 | 1005.5 |
| 20260505193905 | 30 | 195 | 12.9 | 22.5 | 0.00 | 0.00 | 0.00 | 62 | 1005.5 |
| 20260505193805 | 30 | 194 | 12.9 | 22.5 | 0.00 | 0.00 | 0.00 | 62 | 1005.5 |
| 20260505193705 | 30 | 196 | 12.9 | 22.5 | 0.00 | 0.00 | 0.00 | 62 | 1005.5 |
| 20260505193504 | 30 | 197 | 12.9 | 20.9 | 0.00 | 0.00 | 0.00 | 62 | 1005.5 |
| 20260505193405 | 30 | 196 | 12.9 | 20.9 | 0.00 | 0.00 | 0.00 | 62 | 1005.5 |
| 20260505193304 | 30 | 197 | 12.9 | 20.9 | 0.00 | 0.00 | 0.00 | 62 | 1005.6 |
| 20260505193205 | 30 | 199 | 12.9 | 22.5 | 0.00 | 0.00 | 0.00 | 62 | 1005.5 |
| 20260505193105 | 30 | 198 | 12.9 | 24.1 | 0.00 | 0.00 | 0.00 | 63 | 1005.5 |
| 20260505192905 | 30 | 194 | 12.9 | 25.7 | 0.00 | 0.00 | 0.00 | 62 | 1005.5 |
| 20260505192807 | 30 | 194 | 12.9 | 25.7 | 0.00 | 0.00 | 0.00 | 61 | 1005.5 |
| 20260505192605 | 30 | 188 | 12.9 | 25.7 | 0.00 | 0.00 | 0.00 | 63 | 1005.6 |
| 20260505192405 | 30 | 187 | 14.5 | 25.7 | 0.00 | 0.00 | 0.00 | 63 | 1005.6 |
| 20260505192306 | 30 | 185 | 14.5 | 25.7 | 0.00 | 0.00 | 0.00 | 62 | 1005.6 |
| 20260505192106 | 30 | 182 | 12.9 | 25.7 | 0.00 | 0.00 | 0.00 | 63 | 1005.7 |
| 20260505192005 | 30 | 184 | 12.9 | 24.1 | 0.00 | 0.00 | 0.00 | 63 | 1005.7 |
| 20260505191905 | 30 | 186 | 11.3 | 24.1 | 0.00 | 0.00 | 0.00 | 63 | 1005.7 |
| 20260505191805 | 30 | 184 | 11.3 | 24.1 | 0.00 | 0.00 | 0.00 | 62 | 1005.7 |
| 20260505191605 | 30 | 186 | 11.3 | 24.1 | 0.00 | 0.00 | 0.00 | 63 | 1005.8 |
| 20260505191306 | 30 | 177 | 11.3 | 22.5 | 0.00 | 0.00 | 0.00 | 64 | 1005.8 |
| 20260505191105 | 29 | 176 | 12.9 | 22.5 | 0.00 | 0.00 | 0.00 | 64 | 1005.9 |
| 20260505191005 | 29 | 178 | 12.9 | 22.5 | 0.00 | 0.00 | 0.00 | 67 | 1005.9 |
| 20260505190906 | 28 | 178 | 12.9 | 27.4 | 0.00 | 0.00 | 0.00 | 66 | 1005.9 |
| 20260505190805 | 28 | 176 | 12.9 | 29.0 | 0.00 | 0.00 | 0.00 | 65 | 1005.9 |
| 20260505190605 | 28 | 177 | 12.9 | 29.0 | 0.00 | 0.00 | 0.00 | 64 | 1005.9 |
| 20260505190305 | 29 | 191 | 12.9 | 29.0 | 0.00 | 0.00 | 0.00 | 63 | 1005.9 |
| 20260505190104 | 29 | 188 | 14.5 | 29.0 | 0.00 | 0.00 | 0.00 | 64 | 1006.0 |
| 20260505190005 | 29 | 186 | 14.5 | 29.0 | 0.00 | 0.00 | 0.00 | 63 | 1005.8 |
| 20260505185905 | 29 | 186 | 14.5 | 29.0 | 0.00 | 0.00 | 0.00 | 66 | 1006.0 |
| 20260505185805 | 29 | 188 | 16.1 | 22.5 | 0.00 | 0.00 | 0.00 | 65 | 1005.9 |
| 20260505185704 | 28 | 187 | 16.1 | 24.1 | 0.00 | 0.00 | 0.00 | 65 | 1006.0 |
| 20260505185605 | 28 | 187 | 16.1 | 24.1 | 0.00 | 0.00 | 0.00 | 66 | 1006.0 |
| 20260505185504 | 28 | 188 | 16.1 | 27.4 | 0.00 | 0.00 | 0.00 | 66 | 1006.0 |
| 20260505185305 | 28 | 185 | 16.1 | 29.0 | 0.00 | 0.00 | 0.00 | 65 | 1006.0 |
| 20260505185204 | 28 | 187 | 16.1 | 29.0 | 0.00 | 0.00 | 0.00 | 64 | 1006.0 |
| 20260505185105 | 28 | 190 | 16.1 | 29.0 | 0.00 | 0.00 | 0.00 | 65 | 1006.0 |
| 20260505185005 | 28 | 189 | 16.1 | 29.0 | 0.00 | 0.00 | 0.00 | 64 | 1006.0 |
| 20260505184905 | 28 | 192 | 16.1 | 29.0 | 0.00 | 0.00 | 0.00 | 64 | 1006.1 |
| 20260505184705 | 28 | 197 | 16.1 | 29.0 | 0.00 | 0.00 | 0.00 | 65 | 1006.2 |
| 20260505184605 | 28 | 198 | 16.1 | 29.0 | 0.00 | 0.00 | 0.00 | 65 | 1006.2 |
| 20260505184504 | 28 | 198 | 16.1 | 29.0 | 0.00 | 0.00 | 0.00 | 65 | 1006.2 |
| 20260505184405 | 28 | 199 | 16.1 | 25.7 | 0.00 | 0.00 | 0.00 | 65 | 1006.3 |
| 20260505184306 | 28 | 197 | 16.1 | 25.7 | 0.00 | 0.00 | 0.00 | 65 | 1006.2 |
| 20260505184206 | 28 | 197 | 16.1 | 27.4 | 0.00 | 0.00 | 0.00 | 65 | 1006.3 |
| 20260505184105 | 28 | 196 | 16.1 | 27.4 | 0.00 | 0.00 | 0.00 | 65 | 1006.2 |
| 20260505184005 | 28 | 196 | 16.1 | 27.4 | 0.00 | 0.00 | 0.00 | 66 | 1006.2 |
| 20260505183905 | 28 | 193 | 16.1 | 27.4 | 0.00 | 0.00 | 0.00 | 65 | 1006.3 |
| 20260505183805 | 28 | 189 | 17.7 | 27.4 | 0.00 | 0.00 | 0.00 | 65 | 1006.3 |
| 20260505183706 | 28 | 186 | 17.7 | 27.4 | 0.00 | 0.00 | 0.00 | 65 | 1006.3 |
| 20260505183605 | 28 | 189 | 16.1 | 33.8 | 0.00 | 0.00 | 0.00 | 66 | 1006.2 |
| 20260505183505 | 28 | 192 | 16.1 | 33.8 | 0.00 | 0.00 | 0.00 | 66 | 1006.3 |
| 20260505183405 | 28 | 194 | 16.1 | 33.8 | 0.00 | 0.00 | 0.00 | 66 | 1006.2 |
| 20260505183305 | 28 | 196 | 16.1 | 33.8 | 0.00 | 0.00 | 0.00 | 66 | 1006.3 |
| 20260505183206 | 28 | 193 | 16.1 | 33.8 | 0.00 | 0.00 | 0.00 | 66 | 1006.3 |
| 20260505183106 | 28 | 193 | 16.1 | 33.8 | 0.00 | 0.00 | 0.00 | 66 | 1006.3 |
| 20260505183005 | 28 | 194 | 16.1 | 33.8 | 0.00 | 0.00 | 0.00 | 67 | 1006.4 |
| 20260505182905 | 28 | 195 | 14.5 | 33.8 | 0.00 | 0.00 | 0.00 | 66 | 1006.4 |
| 20260505182805 | 28 | 199 | 14.5 | 33.8 | 0.00 | 0.00 | 0.00 | 67 | 1006.5 |
| 20260505182605 | 28 | 195 | 14.5 | 25.7 | 0.00 | 0.00 | 0.00 | 65 | 1006.6 |
| 20260505182504 | 28 | 192 | 14.5 | 25.7 | 0.00 | 0.00 | 0.00 | 66 | 1006.7 |
| 20260505182205 | 28 | 188 | 16.1 | 27.4 | 0.00 | 0.00 | 0.00 | 66 | 1006.6 |
| 20260505182105 | 28 | 187 | 16.1 | 27.4 | 0.00 | 0.00 | 0.00 | 66 | 1006.6 |
| 20260505182005 | 28 | 188 | 16.1 | 27.4 | 0.00 | 0.00 | 0.00 | 66 | 1006.6 |
| 20260505181904 | 28 | 190 | 16.1 | 27.4 | 0.00 | 0.00 | 0.00 | 66 | 1006.6 |
| 20260505181806 | 27 | 190 | 16.1 | 27.4 | 0.00 | 0.00 | 0.00 | 66 | 1006.6 |
| 20260505181704 | 27 | 191 | 16.1 | 27.4 | 0.00 | 0.00 | 0.00 | 66 | 1006.6 |
| 20260505181605 | 27 | 192 | 16.1 | 27.4 | 0.00 | 0.00 | 0.00 | 66 | 1006.6 |
| 20260505181505 | 27 | 194 | 16.1 | 27.4 | 0.00 | 0.00 | 0.00 | 66 | 1006.7 |
| 20260505181304 | 27 | 199 | 16.1 | 27.4 | 0.00 | 0.00 | 0.00 | 68 | 1006.7 |
| 20260505181205 | 27 | 198 | 16.1 | 27.4 | 0.00 | 0.00 | 0.00 | 67 | 1006.7 |
| 20260505181104 | 27 | 201 | 16.1 | 27.4 | 0.00 | 0.00 | 0.00 | 68 | 1006.7 |
| 20260505181005 | 27 | 200 | 16.1 | 32.2 | 0.00 | 0.00 | 0.00 | 67 | 1006.8 |
| 20260505180904 | 27 | 199 | 16.1 | 32.2 | 0.00 | 0.00 | 0.00 | 67 | 1006.8 |
| 20260505180806 | 27 | 198 | 16.1 | 32.2 | 0.00 | 0.00 | 0.00 | 68 | 1006.7 |
| 20260505180604 | 27 | 198 | 16.1 | 32.2 | 0.00 | 0.00 | 0.00 | 68 | 1006.8 |
| 20260505180505 | 27 | 200 | 17.7 | 32.2 | 0.00 | 0.00 | 0.00 | 68 | 1006.7 |
| 20260505180405 | 27 | 201 | 17.7 | 32.2 | 0.00 | 0.00 | 0.00 | 68 | 1006.7 |
| 20260505180305 | 27 | 200 | 19.3 | 32.2 | 0.00 | 0.00 | 0.00 | 67 | 1006.7 |
| 20260505180205 | 27 | 202 | 17.7 | 32.2 | 0.00 | 0.00 | 0.00 | 67 | 1006.7 |
| 20260505180105 | 27 | 202 | 17.7 | 32.2 | 0.00 | 0.00 | 0.00 | 66 | 1006.7 |
| 20260505180005 | 27 | 204 | 16.1 | 32.2 | 0.00 | 0.00 | 0.00 | 68 | 1006.6 |
| 20260505175904 | 27 | 204 | 16.1 | 32.2 | 0.00 | 0.00 | 0.00 | 68 | 1006.6 |
| 20260505175805 | 27 | 203 | 16.1 | 32.2 | 0.00 | 0.00 | 0.00 | 67 | 1006.7 |
| 20260505175705 | 27 | 203 | 16.1 | 32.2 | 0.00 | 0.00 | 0.00 | 67 | 1006.7 |
| 20260505175605 | 27 | 201 | 16.1 | 32.2 | 0.00 | 0.00 | 0.00 | 67 | 1006.7 |
| 20260505175505 | 27 | 197 | 16.1 | 32.2 | 0.00 | 0.00 | 0.00 | 67 | 1006.7 |
| 20260505175405 | 28 | 197 | 14.5 | 32.2 | 0.00 | 0.00 | 0.00 | 67 | 1006.8 |
| 20260505175305 | 28 | 195 | 14.5 | 32.2 | 0.00 | 0.00 | 0.00 | 67 | 1006.8 |
| 20260505175206 | 27 | 192 | 14.5 | 32.2 | 0.00 | 0.00 | 0.00 | 69 | 1006.7 |
| 20260505175104 | 27 | 190 | 14.5 | 32.2 | 0.00 | 0.00 | 0.00 | 70 | 1006.8 |
| 20260505175005 | 27 | 189 | 16.1 | 32.2 | 0.00 | 0.00 | 0.00 | 69 | 1006.8 |
| 20260505174905 | 27 | 191 | 16.1 | 32.2 | 0.00 | 0.00 | 0.00 | 68 | 1006.8 |
| 20260505174805 | 27 | 193 | 16.1 | 32.2 | 0.00 | 0.00 | 0.00 | 67 | 1006.8 |
| 20260505174705 | 27 | 195 | 16.1 | 32.2 | 0.00 | 0.00 | 0.00 | 69 | 1006.9 |
| 20260505174605 | 27 | 195 | 16.1 | 32.2 | 0.00 | 0.00 | 0.00 | 69 | 1006.8 |
| 20260505174504 | 27 | 194 | 16.1 | 32.2 | 0.00 | 0.00 | 0.00 | 68 | 1006.9 |
| 20260505174405 | 27 | 193 | 16.1 | 30.6 | 0.00 | 0.00 | 0.00 | 69 | 1006.9 |
| 20260505174305 | 27 | 193 | 17.7 | 30.6 | 0.00 | 0.00 | 0.00 | 68 | 1006.9 |
| 20260505174205 | 27 | 194 | 17.7 | 30.6 | 0.00 | 0.00 | 0.00 | 68 | 1007.0 |
| 20260505174005 | 27 | 197 | 17.7 | 32.2 | 0.00 | 0.00 | 0.00 | 69 | 1007.0 |
| 20260505173904 | 27 | 197 | 17.7 | 32.2 | 0.00 | 0.00 | 0.00 | 69 | 1007.0 |
| 20260505173705 | 27 | 196 | 17.7 | 32.2 | 0.00 | 0.00 | 0.00 | 69 | 1007.0 |
| 20260505173605 | 27 | 197 | 17.7 | 32.2 | 0.00 | 0.00 | 0.00 | 68 | 1007.0 |
| 20260505173505 | 27 | 198 | 17.7 | 32.2 | 0.00 | 0.00 | 0.00 | 68 | 1007.0 |
| 20260505173405 | 27 | 198 | 17.7 | 32.2 | 0.00 | 0.00 | 0.00 | 68 | 1007.1 |
| 20260505173304 | 27 | 198 | 16.1 | 32.2 | 0.00 | 0.00 | 0.00 | 69 | 1007.1 |
| 20260505173205 | 27 | 200 | 16.1 | 32.2 | 0.00 | 0.00 | 0.00 | 70 | 1007.1 |
| 20260505173104 | 27 | 203 | 16.1 | 32.2 | 0.00 | 0.00 | 0.00 | 69 | 1007.1 |
| 20260505173005 | 27 | 204 | 16.1 | 27.4 | 0.00 | 0.00 | 0.00 | 70 | 1007.1 |
| 20260505172905 | 27 | 203 | 16.1 | 27.4 | 0.00 | 0.00 | 0.00 | 69 | 1007.1 |
| 20260505172805 | 27 | 199 | 17.7 | 30.6 | 0.00 | 0.00 | 0.00 | 70 | 1007.1 |
| 20260505172705 | 27 | 200 | 17.7 | 32.2 | 0.00 | 0.00 | 0.00 | 69 | 1007.1 |
| 20260505172505 | 27 | 202 | 17.7 | 32.2 | 0.00 | 0.00 | 0.00 | 70 | 1007.1 |
| 20260505172405 | 27 | 201 | 17.7 | 32.2 | 0.00 | 0.00 | 0.00 | 70 | 1007.2 |
| 20260505172306 | 27 | 203 | 19.3 | 32.2 | 0.00 | 0.00 | 0.00 | 70 | 1007.2 |
| 20260505172205 | 26 | 203 | 19.3 | 32.2 | 0.00 | 0.00 | 0.00 | 70 | 1007.1 |
| 20260505172105 | 26 | 201 | 19.3 | 32.2 | 0.00 | 0.00 | 0.00 | 70 | 1007.1 |
| 20260505171805 | 27 | 204 | 17.7 | 37.0 | 0.00 | 0.00 | 0.00 | 69 | 1007.0 |
| 20260505171705 | 27 | 203 | 17.7 | 37.0 | 0.00 | 0.00 | 0.00 | 70 | 1007.1 |
| 20260505171605 | 27 | 206 | 17.7 | 37.0 | 0.00 | 0.00 | 0.00 | 69 | 1007.0 |
| 20260505171504 | 27 | 206 | 16.1 | 37.0 | 0.00 | 0.00 | 0.00 | 70 | 1007.0 |
| 20260505171405 | 27 | 208 | 16.1 | 37.0 | 0.00 | 0.00 | 0.00 | 70 | 1007.0 |
| 20260505171304 | 26 | 207 | 16.1 | 37.0 | 0.00 | 0.00 | 0.00 | 70 | 1007.0 |
| 20260505171206 | 26 | 206 | 16.1 | 37.0 | 0.00 | 0.00 | 0.00 | 70 | 1007.0 |
| 20260505171104 | 26 | 206 | 16.1 | 37.0 | 0.00 | 0.00 | 0.00 | 70 | 1006.9 |
| 20260505171005 | 26 | 206 | 17.7 | 30.6 | 0.00 | 0.00 | 0.00 | 70 | 1006.9 |
| 20260505170904 | 26 | 205 | 17.7 | 30.6 | 0.00 | 0.00 | 0.00 | 70 | 1006.9 |
| 20260505170805 | 26 | 205 | 17.7 | 30.6 | 0.00 | 0.00 | 0.00 | 70 | 1006.9 |
| 20260505170704 | 26 | 206 | 17.7 | 30.6 | 0.00 | 0.00 | 0.00 | 70 | 1006.9 |
| 20260505170605 | 26 | 203 | 17.7 | 30.6 | 0.00 | 0.00 | 0.00 | 70 | 1006.9 |
| 20260505170504 | 26 | 202 | 17.7 | 30.6 | 0.00 | 0.00 | 0.00 | 69 | 1006.9 |
| 20260505170405 | 26 | 201 | 17.7 | 30.6 | 0.00 | 0.00 | 0.00 | 69 | 1006.9 |
| 20260505170305 | 26 | 201 | 17.7 | 30.6 | 0.00 | 0.00 | 0.00 | 70 | 1006.9 |
| 20260505170205 | 26 | 200 | 17.7 | 30.6 | 0.00 | 0.00 | 0.00 | 71 | 1006.9 |
| 20260505170105 | 26 | 200 | 17.7 | 30.6 | 0.00 | 0.00 | 0.00 | 71 | 1006.9 |
| 20260505165905 | 26 | 198 | 17.7 | 30.6 | 0.00 | 0.00 | 0.00 | 71 | 1007.0 |
| 20260505165806 | 26 | 198 | 17.7 | 30.6 | 0.00 | 0.00 | 0.00 | 71 | 1007.0 |
| 20260505165704 | 26 | 197 | 17.7 | 30.6 | 0.00 | 0.00 | 0.00 | 71 | 1007.0 |
| 20260505165605 | 26 | 195 | 17.7 | 30.6 | 0.00 | 0.00 | 0.00 | 71 | 1007.0 |
| 20260505165505 | 26 | 196 | 16.1 | 30.6 | 0.00 | 0.00 | 0.00 | 71 | 1007.0 |
| 20260505165404 | 26 | 194 | 17.7 | 29.0 | 0.00 | 0.00 | 0.00 | 71 | 1007.0 |
| 20260505165306 | 26 | 194 | 17.7 | 29.0 | 0.00 | 0.00 | 0.00 | 72 | 1007.0 |
| 20260505165205 | 26 | 193 | 16.1 | 29.0 | 0.00 | 0.00 | 0.00 | 72 | 1007.0 |
| 20260505165105 | 26 | 192 | 16.1 | 27.4 | 0.00 | 0.00 | 0.00 | 72 | 1007.0 |
| 20260505165005 | 26 | 193 | 16.1 | 27.4 | 0.00 | 0.00 | 0.00 | 72 | 1006.9 |
| 20260505164904 | 26 | 199 | 16.1 | 27.4 | 0.00 | 0.00 | 0.00 | 72 | 1006.9 |
| 20260505164804 | 26 | 200 | 17.7 | 29.0 | 0.00 | 0.00 | 0.00 | 72 | 1007.0 |
| 20260505164705 | 26 | 200 | 16.1 | 29.0 | 0.00 | 0.00 | 0.00 | 71 | 1007.0 |
| 20260505164604 | 26 | 201 | 17.7 | 29.0 | 0.00 | 0.00 | 0.00 | 73 | 1007.0 |
| 20260505164505 | 26 | 200 | 17.7 | 29.0 | 0.00 | 0.00 | 0.00 | 71 | 1007.0 |
| 20260505164405 | 26 | 202 | 16.1 | 29.0 | 0.00 | 0.00 | 0.00 | 72 | 1007.0 |
| 20260505164306 | 26 | 203 | 16.1 | 29.0 | 0.00 | 0.00 | 0.00 | 72 | 1007.0 |
| 20260505164205 | 26 | 204 | 17.7 | 29.0 | 0.00 | 0.00 | 0.00 | 72 | 1007.0 |
| 20260505164104 | 26 | 206 | 17.7 | 29.0 | 0.00 | 0.00 | 0.00 | 72 | 1006.9 |
| 20260505164005 | 26 | 207 | 17.7 | 30.6 | 0.00 | 0.00 | 0.00 | 71 | 1007.0 |
| 20260505163905 | 26 | 207 | 17.7 | 37.0 | 0.00 | 0.00 | 0.00 | 71 | 1006.9 |
| 20260505163805 | 26 | 208 | 16.1 | 37.0 | 0.00 | 0.00 | 0.00 | 71 | 1006.9 |
| 20260505163705 | 26 | 209 | 17.7 | 37.0 | 0.00 | 0.00 | 0.00 | 71 | 1006.9 |
| 20260505163605 | 26 | 211 | 16.1 | 37.0 | 0.00 | 0.00 | 0.00 | 73 | 1007.1 |
| 20260505163504 | 26 | 214 | 17.7 | 37.0 | 0.00 | 0.00 | 0.00 | 73 | 1007.0 |
| 20260505163304 | 25 | 214 | 17.7 | 37.0 | 0.00 | 0.00 | 0.00 | 73 | 1007.1 |
| 20260505163205 | 25 | 213 | 17.7 | 37.0 | 0.00 | 0.00 | 0.00 | 72 | 1007.0 |
| 20260505163104 | 26 | 212 | 17.7 | 37.0 | 0.00 | 0.00 | 0.00 | 72 | 1007.1 |
| 20260505163006 | 26 | 211 | 16.1 | 37.0 | 0.00 | 0.00 | 0.00 | 72 | 1007.1 |
| 20260505162905 | 26 | 209 | 16.1 | 29.0 | 0.00 | 0.00 | 0.00 | 73 | 1007.1 |
| 20260505162805 | 25 | 207 | 16.1 | 29.0 | 0.00 | 0.00 | 0.00 | 72 | 1007.1 |
| 20260505162705 | 25 | 206 | 16.1 | 29.0 | 0.00 | 0.00 | 0.00 | 72 | 1007.0 |
| 20260505162605 | 26 | 206 | 16.1 | 29.0 | 0.00 | 0.00 | 0.00 | 72 | 1007.1 |
| 20260505162505 | 26 | 204 | 14.5 | 29.0 | 0.00 | 0.00 | 0.00 | 71 | 1007.1 |
| 20260505162404 | 26 | 205 | 14.5 | 29.0 | 0.00 | 0.00 | 0.00 | 72 | 1007.1 |
| 20260505162307 | 26 | 206 | 14.5 | 27.4 | 0.00 | 0.00 | 0.00 | 73 | 1007.1 |
| 20260505162204 | 25 | 205 | 14.5 | 27.4 | 0.00 | 0.00 | 0.00 | 74 | 1007.1 |
| 20260505162104 | 25 | 204 | 12.9 | 27.4 | 0.00 | 0.00 | 0.00 | 74 | 1007.1 |
| 20260505162005 | 25 | 205 | 14.5 | 27.4 | 0.00 | 0.00 | 0.00 | 74 | 1007.1 |
| 20260505161904 | 25 | 207 | 14.5 | 27.4 | 0.00 | 0.00 | 0.00 | 74 | 1007.2 |
| 20260505161805 | 25 | 208 | 14.5 | 27.4 | 0.00 | 0.00 | 0.00 | 74 | 1007.2 |
| 20260505161605 | 25 | 206 | 16.1 | 27.4 | 0.00 | 0.00 | 0.00 | 74 | 1007.2 |
| 20260505161405 | 25 | 204 | 16.1 | 32.2 | 0.00 | 0.00 | 0.00 | 74 | 1007.2 |
| 20260505161305 | 25 | 202 | 17.7 | 32.2 | 0.00 | 0.00 | 0.00 | 75 | 1007.3 |
| 20260505161204 | 25 | 204 | 17.7 | 32.2 | 0.00 | 0.00 | 0.00 | 75 | 1007.3 |
| 20260505161104 | 25 | 205 | 17.7 | 32.2 | 0.00 | 0.00 | 0.00 | 75 | 1007.3 |
| 20260505161005 | 25 | 205 | 17.7 | 32.2 | 0.00 | 0.00 | 0.00 | 75 | 1007.3 |
| 20260505160904 | 24 | 205 | 17.7 | 32.2 | 0.00 | 0.00 | 0.00 | 75 | 1007.3 |
| 20260505160805 | 25 | 204 | 17.7 | 32.2 | 0.00 | 0.00 | 0.00 | 75 | 1007.3 |
| 20260505160704 | 24 | 202 | 17.7 | 32.2 | 0.00 | 0.00 | 0.00 | 75 | 1007.3 |
| 20260505160605 | 24 | 202 | 16.1 | 32.2 | 0.00 | 0.00 | 0.00 | 75 | 1007.3 |
| 20260505160504 | 24 | 202 | 14.5 | 32.2 | 0.00 | 0.00 | 0.00 | 75 | 1007.3 |
| 20260505160405 | 24 | 201 | 14.5 | 30.6 | 0.00 | 0.00 | 0.00 | 75 | 1007.3 |
| 20260505160306 | 24 | 199 | 12.9 | 30.6 | 0.00 | 0.00 | 0.00 | 75 | 1007.3 |
| 20260505160206 | 25 | 198 | 12.9 | 24.1 | 0.00 | 0.00 | 0.00 | 76 | 1007.3 |
| 20260505160104 | 24 | 197 | 12.9 | 24.1 | 0.00 | 0.00 | 0.00 | 76 | 1007.2 |
| 20260505153204 | 23 | 207 | 16.1 | 30.6 | 0.00 | 0.00 | 0.00 | 78 | 1007.1 |
| 20260505153105 | 23 | 205 | 16.1 | 30.6 | 0.00 | 0.00 | 0.00 | 78 | 1007.1 |
| 20260505153005 | 23 | 205 | 16.1 | 30.6 | 0.00 | 0.00 | 0.00 | 78 | 1007.1 |
| 20260505152905 | 23 | 200 | 16.1 | 30.6 | 0.00 | 0.00 | 0.00 | 77 | 1007.2 |
| 20260505152704 | 24 | 196 | 14.5 | 30.6 | 0.00 | 0.00 | 0.00 | 77 | 1007.1 |
| 20260505152605 | 24 | 195 | 12.9 | 25.7 | 0.00 | 0.00 | 0.00 | 77 | 1007.1 |
| 20260505152505 | 24 | 197 | 12.9 | 25.7 | 0.00 | 0.00 | 0.00 | 78 | 1007.1 |
| 20260505152405 | 24 | 199 | 14.5 | 25.7 | 0.00 | 0.00 | 0.00 | 78 | 1007.1 |
| 20260505152205 | 23 | 202 | 14.5 | 29.0 | 0.00 | 0.00 | 0.00 | 78 | 1007.1 |
| 20260505152104 | 23 | 203 | 14.5 | 29.0 | 0.00 | 0.00 | 0.00 | 79 | 1007.2 |
| 20260505152005 | 23 | 204 | 14.5 | 29.0 | 0.00 | 0.00 | 0.00 | 79 | 1007.1 |
| 20260505151804 | 23 | 206 | 14.5 | 29.0 | 0.00 | 0.00 | 0.00 | 79 | 1007.1 |
| 20260505151705 | 23 | 207 | 14.5 | 29.0 | 0.00 | 0.00 | 0.00 | 79 | 1007.2 |
| 20260505151604 | 23 | 208 | 14.5 | 29.0 | 0.00 | 0.00 | 0.00 | 79 | 1007.3 |
| 20260505151505 | 23 | 208 | 14.5 | 29.0 | 0.00 | 0.00 | 0.00 | 79 | 1007.2 |
| 20260505151404 | 23 | 209 | 14.5 | 29.0 | 0.00 | 0.00 | 0.00 | 79 | 1007.2 |
| 20260505151304 | 23 | 207 | 14.5 | 25.7 | 0.00 | 0.00 | 0.00 | 79 | 1007.2 |
| 20260505151204 | 23 | 206 | 14.5 | 25.7 | 0.00 | 0.00 | 0.00 | 79 | 1007.2 |
| 20260505151106 | 23 | 207 | 14.5 | 25.7 | 0.00 | 0.00 | 0.00 | 79 | 1007.1 |
| 20260505150904 | 23 | 208 | 14.5 | 25.7 | 0.00 | 0.00 | 0.00 | 80 | 1007.2 |
| 20260505150806 | 23 | 207 | 12.9 | 25.7 | 0.00 | 0.00 | 0.00 | 79 | 1007.2 |
| 20260505150505 | 23 | 204 | 12.9 | 27.4 | 0.00 | 0.00 | 0.00 | 79 | 1007.1 |
| 20260505150404 | 23 | 203 | 12.9 | 27.4 | 0.00 | 0.00 | 0.00 | 80 | 1007.1 |
| 20260505150305 | 23 | 205 | 12.9 | 27.4 | 0.00 | 0.00 | 0.00 | 80 | 1007.1 |
| 20260505150205 | 23 | 206 | 12.9 | 27.4 | 0.00 | 0.00 | 0.00 | 80 | 1007.1 |
| 20260505150104 | 23 | 207 | 12.9 | 27.4 | 0.00 | 0.00 | 0.00 | 80 | 1007.2 |
| 20260505140404 | 22 | 202 | 14.5 | 25.7 | 0.00 | 0.00 | 0.00 | 83 | 1006.8 |
| 20260505140305 | 22 | 201 | 14.5 | 25.7 | 0.00 | 0.00 | 0.00 | 83 | 1006.7 |
| 20260505140104 | 22 | 199 | 14.5 | 25.7 | 0.00 | 0.00 | 0.00 | 83 | 1006.7 |
| 20260505130305 | 21 | 187 | 11.3 | 24.1 | 0.00 | 0.00 | 0.00 | 84 | 1006.3 |
| 20260505130204 | 21 | 185 | 11.3 | 24.1 | 0.00 | 0.00 | 0.00 | 84 | 1006.4 |
| 20260505125004 | 21 | 179 | 9.7 | 19.3 | 0.00 | 0.00 | 0.00 | 84 | 1006.2 |
| 20260505124904 | 21 | 178 | 11.3 | 19.3 | 0.00 | 0.00 | 0.00 | 84 | 1006.1 |
| 20260505124804 | 21 | 179 | 9.7 | 19.3 | 0.00 | 0.00 | 0.00 | 84 | 1006.1 |
| 20260505124604 | 21 | 179 | 11.3 | 19.3 | 0.00 | 0.00 | 0.00 | 85 | 1006.0 |
| 20260505124504 | 21 | 179 | 11.3 | 19.3 | 0.00 | 0.00 | 0.00 | 84 | 1006.0 |
| 20260505124304 | 21 | 177 | 11.3 | 19.3 | 0.00 | 0.00 | 0.00 | 85 | 1006.0 |
| 20260505124204 | 21 | 176 | 11.3 | 19.3 | 0.00 | 0.00 | 0.00 | 85 | 1006.0 |
| 20260505124104 | 21 | 176 | 11.3 | 19.3 | 0.00 | 0.00 | 0.00 | 85 | 1006.0 |
| 20260505124006 | 21 | 177 | 11.3 | 19.3 | 0.00 | 0.00 | 0.00 | 85 | 1006.0 |
| 20260505123904 | 21 | 177 | 11.3 | 19.3 | 0.00 | 0.00 | 0.00 | 85 | 1006.0 |
| 20260505123804 | 21 | 178 | 11.3 | 17.7 | 0.00 | 0.00 | 0.00 | 85 | 1005.9 |
| 20260505123505 | 21 | 184 | 9.7 | 17.7 | 0.00 | 0.00 | 0.00 | 85 | 1005.9 |
| 20260505123404 | 21 | 184 | 9.7 | 16.1 | 0.00 | 0.00 | 0.00 | 85 | 1005.9 |
| 20260505123305 | 21 | 186 | 9.7 | 16.1 | 0.00 | 0.00 | 0.00 | 85 | 1005.9 |
| 20260505123204 | 21 | 188 | 9.7 | 16.1 | 0.00 | 0.00 | 0.00 | 85 | 1005.9 |
| 20260505123104 | 21 | 188 | 9.7 | 16.1 | 0.00 | 0.00 | 0.00 | 85 | 1005.8 |
| 20260505123005 | 21 | 188 | 9.7 | 16.1 | 0.00 | 0.00 | 0.00 | 85 | 1005.8 |
| 20260505122904 | 21 | 185 | 9.7 | 16.1 | 0.00 | 0.00 | 0.00 | 85 | 1005.9 |
| 20260505122805 | 21 | 186 | 9.7 | 16.1 | 0.00 | 0.00 | 0.00 | 85 | 1005.8 |
| 20260505122704 | 21 | 186 | 9.7 | 16.1 | 0.00 | 0.00 | 0.00 | 85 | 1005.9 |
| 20260505122604 | 21 | 183 | 9.7 | 16.1 | 0.00 | 0.00 | 0.00 | 85 | 1005.9 |
| 20260505122505 | 21 | 182 | 9.7 | 16.1 | 0.00 | 0.00 | 0.00 | 85 | 1005.8 |
| 20260505122404 | 21 | 181 | 9.7 | 16.1 | 0.00 | 0.00 | 0.00 | 85 | 1005.9 |
| 20260505122306 | 21 | 178 | 9.7 | 16.1 | 0.00 | 0.00 | 0.00 | 85 | 1005.9 |
| 20260505122205 | 21 | 177 | 9.7 | 16.1 | 0.00 | 0.00 | 0.00 | 85 | 1005.8 |
| 20260505122105 | 21 | 177 | 9.7 | 16.1 | 0.00 | 0.00 | 0.00 | 85 | 1005.8 |
| 20260505121905 | 21 | 179 | 8.0 | 16.1 | 0.00 | 0.00 | 0.00 | 85 | 1005.7 |
| 20260505121804 | 21 | 178 | 8.0 | 14.5 | 0.00 | 0.00 | 0.00 | 85 | 1005.7 |
| 20260505121604 | 21 | 176 | 8.0 | 12.9 | 0.00 | 0.00 | 0.00 | 85 | 1005.7 |
| 20260505121504 | 21 | 177 | 8.0 | 12.9 | 0.00 | 0.00 | 0.00 | 85 | 1005.6 |
| 20260505121405 | 21 | 179 | 8.0 | 14.5 | 0.00 | 0.00 | 0.00 | 85 | 1005.6 |
| 20260505121304 | 21 | 178 | 8.0 | 14.5 | 0.00 | 0.00 | 0.00 | 85 | 1005.6 |
| 20260505121205 | 21 | 177 | 8.0 | 14.5 | 0.00 | 0.00 | 0.00 | 85 | 1005.6 |
| 20260505121004 | 21 | 175 | 9.7 | 14.5 | 0.00 | 0.00 | 0.00 | 85 | 1005.6 |
| 20260505120904 | 21 | 175 | 9.7 | 14.5 | 0.00 | 0.00 | 0.00 | 85 | 1005.6 |
| 20260505120805 | 21 | 174 | 9.7 | 14.5 | 0.00 | 0.00 | 0.00 | 85 | 1005.6 |
| 20260505120704 | 21 | 173 | 9.7 | 16.1 | 0.00 | 0.00 | 0.00 | 85 | 1005.6 |
| 20260505120604 | 21 | 173 | 9.7 | 16.1 | 0.00 | 0.00 | 0.00 | 85 | 1005.6 |
| 20260505120504 | 21 | 172 | 9.7 | 16.1 | 0.00 | 0.00 | 0.00 | 85 | 1005.6 |
| 20260505120405 | 21 | 171 | 9.7 | 16.1 | 0.00 | 0.00 | 0.00 | 85 | 1005.6 |
| 20260505120304 | 21 | 170 | 9.7 | 16.1 | 0.00 | 0.00 | 0.00 | 85 | 1005.5 |
| 20260505120105 | 21 | 169 | 9.7 | 16.1 | 0.00 | 0.00 | 0.00 | 85 | 1005.6 |
| 20260505120005 | 21 | 170 | 9.7 | 16.1 | 0.00 | 0.00 | 0.00 | 85 | 1005.5 |
| 20260505115905 | 21 | 169 | 9.7 | 16.1 | 0.00 | 0.00 | 0.00 | 85 | 1005.5 |
| 20260505115804 | 21 | 171 | 9.7 | 17.7 | 0.00 | 0.00 | 0.00 | 85 | 1005.5 |
| 20260505115705 | 21 | 172 | 9.7 | 17.7 | 0.00 | 0.00 | 0.00 | 85 | 1005.5 |
| 20260505115604 | 21 | 174 | 9.7 | 17.7 | 0.00 | 0.00 | 0.00 | 85 | 1005.4 |
| 20260505115305 | 21 | 175 | 8.0 | 17.7 | 0.00 | 0.00 | 0.00 | 85 | 1005.4 |
| 20260505115204 | 21 | 176 | 8.0 | 17.7 | 0.00 | 0.00 | 0.00 | 85 | 1005.3 |
| 20260505115104 | 21 | 177 | 8.0 | 17.7 | 0.00 | 0.00 | 0.00 | 85 | 1005.3 |
| 20260505115005 | 21 | 176 | 9.7 | 17.7 | 0.00 | 0.00 | 0.00 | 85 | 1005.3 |
| 20260505114905 | 21 | 177 | 9.7 | 17.7 | 0.00 | 0.00 | 0.00 | 85 | 1005.4 |
| 20260505114804 | 21 | 176 | 9.7 | 14.5 | 0.00 | 0.00 | 0.00 | 85 | 1005.4 |
| 20260505114704 | 21 | 175 | 9.7 | 17.7 | 0.00 | 0.00 | 0.00 | 85 | 1005.4 |
| 20260505114605 | 21 | 174 | 9.7 | 17.7 | 0.00 | 0.00 | 0.00 | 85 | 1005.5 |
| 20260505114504 | 21 | 175 | 9.7 | 17.7 | 0.00 | 0.00 | 0.00 | 85 | 1005.5 |
| 20260505114403 | 21 | 175 | 9.7 | 19.3 | 0.00 | 0.00 | 0.00 | 85 | 1005.6 |
| 20260505114304 | 21 | 177 | 11.3 | 19.3 | 0.00 | 0.00 | 0.00 | 85 | 1005.6 |
| 20260505114105 | 21 | 176 | 9.7 | 19.3 | 0.00 | 0.00 | 0.00 | 85 | 1005.6 |
| 20260505114005 | 21 | 178 | 11.3 | 19.3 | 0.00 | 0.00 | 0.00 | 85 | 1005.6 |
| 20260505113904 | 21 | 177 | 11.3 | 19.3 | 0.00 | 0.00 | 0.00 | 85 | 1005.6 |
| 20260505113804 | 21 | 176 | 11.3 | 19.3 | 0.00 | 0.00 | 0.00 | 85 | 1005.5 |
| 20260505113704 | 21 | 177 | 11.3 | 19.3 | 0.00 | 0.00 | 0.00 | 85 | 1005.5 |
| 20260505113604 | 21 | 176 | 11.3 | 19.3 | 0.00 | 0.00 | 0.00 | 85 | 1005.5 |
| 20260505113405 | 21 | 176 | 11.3 | 17.7 | 0.00 | 0.00 | 0.00 | 85 | 1005.5 |
| 20260505113305 | 21 | 174 | 11.3 | 17.7 | 0.00 | 0.00 | 0.00 | 85 | 1005.5 |
| 20260505113204 | 21 | 172 | 11.3 | 17.7 | 0.00 | 0.00 | 0.00 | 85 | 1005.4 |
| 20260505113105 | 21 | 173 | 11.3 | 17.7 | 0.00 | 0.00 | 0.00 | 85 | 1005.4 |
| 20260505113004 | 21 | 172 | 9.7 | 17.7 | 0.00 | 0.00 | 0.00 | 85 | 1005.4 |
| 20260505112804 | 21 | 174 | 9.7 | 17.7 | 0.00 | 0.00 | 0.00 | 85 | 1005.3 |
| 20260505112704 | 21 | 174 | 9.7 | 17.7 | 0.00 | 0.00 | 0.00 | 85 | 1005.3 |
| 20260505112604 | 21 | 174 | 9.7 | 14.5 | 0.00 | 0.00 | 0.00 | 85 | 1005.3 |
| 20260505112504 | 21 | 174 | 8.0 | 14.5 | 0.00 | 0.00 | 0.00 | 85 | 1005.3 |
| 20260505112404 | 21 | 176 | 8.0 | 14.5 | 0.00 | 0.00 | 0.00 | 85 | 1005.3 |
| 20260505112305 | 21 | 177 | 9.7 | 14.5 | 0.00 | 0.00 | 0.00 | 85 | 1005.3 |
| 20260505112204 | 21 | 178 | 9.7 | 14.5 | 0.00 | 0.00 | 0.00 | 85 | 1005.4 |
| 20260505112105 | 21 | 177 | 9.7 | 14.5 | 0.00 | 0.00 | 0.00 | 85 | 1005.4 |
| 20260505112004 | 21 | 178 | 9.7 | 14.5 | 0.00 | 0.00 | 0.00 | 85 | 1005.5 |
| 20260505111905 | 21 | 179 | 9.7 | 14.5 | 0.00 | 0.00 | 0.00 | 85 | 1005.5 |
| 20260505111804 | 21 | 181 | 9.7 | 14.5 | 0.00 | 0.00 | 0.00 | 85 | 1005.5 |
| 20260505111604 | 21 | 183 | 9.7 | 16.1 | 0.00 | 0.00 | 0.00 | 85 | 1005.5 |
| 20260505111505 | 21 | 183 | 9.7 | 17.7 | 0.00 | 0.00 | 0.00 | 85 | 1005.5 |
| 20260505111405 | 21 | 182 | 9.7 | 17.7 | 0.00 | 0.00 | 0.00 | 85 | 1005.4 |
| 20260505111305 | 21 | 183 | 9.7 | 17.7 | 0.00 | 0.00 | 0.00 | 85 | 1005.4 |
| 20260505111204 | 21 | 185 | 9.7 | 17.7 | 0.00 | 0.00 | 0.00 | 85 | 1005.4 |
| 20260505111105 | 21 | 186 | 9.7 | 17.7 | 0.00 | 0.00 | 0.00 | 85 | 1005.4 |
| 20260505111004 | 21 | 185 | 9.7 | 17.7 | 0.00 | 0.00 | 0.00 | 85 | 1005.5 |
| 20260505110804 | 21 | 183 | 11.3 | 17.7 | 0.00 | 0.00 | 0.00 | 85 | 1005.7 |
| 20260505110705 | 21 | 184 | 11.3 | 22.5 | 0.00 | 0.00 | 0.00 | 85 | 1005.7 |
| 20260505110604 | 21 | 184 | 11.3 | 22.5 | 0.00 | 0.00 | 0.00 | 85 | 1005.6 |
| 20260505110505 | 21 | 183 | 11.3 | 22.5 | 0.00 | 0.00 | 0.00 | 85 | 1005.6 |
| 20260505110404 | 21 | 182 | 12.9 | 22.5 | 0.00 | 0.00 | 0.00 | 85 | 1005.6 |
| 20260505110204 | 21 | 179 | 12.9 | 22.5 | 0.00 | 0.00 | 0.00 | 85 | 1005.6 |
| 20260505102204 | 21 | 188 | 14.5 | 25.7 | 0.00 | 0.00 | 0.00 | 84 | 1005.3 |
| 20260505102104 | 21 | 187 | 12.9 | 25.7 | 0.00 | 0.00 | 0.00 | 84 | 1005.3 |
| 20260505102004 | 21 | 187 | 12.9 | 25.7 | 0.00 | 0.00 | 0.00 | 84 | 1005.3 |
| 20260505101905 | 21 | 186 | 12.9 | 25.7 | 0.00 | 0.00 | 0.00 | 84 | 1005.3 |
| 20260505101803 | 21 | 186 | 12.9 | 25.7 | 0.00 | 0.00 | 0.00 | 84 | 1005.3 |
| 20260505101704 | 21 | 186 | 12.9 | 25.7 | 0.00 | 0.00 | 0.00 | 84 | 1005.3 |
| 20260505101505 | 21 | 187 | 12.9 | 25.7 | 0.00 | 0.00 | 0.00 | 84 | 1005.3 |
| 20260505101404 | 21 | 188 | 12.9 | 20.9 | 0.00 | 0.00 | 0.00 | 84 | 1005.3 |
| 20260505101204 | 21 | 190 | 12.9 | 20.9 | 0.00 | 0.00 | 0.00 | 84 | 1005.3 |
| 20260505101104 | 21 | 191 | 14.5 | 22.5 | 0.00 | 0.00 | 0.00 | 84 | 1005.3 |
| 20260505101004 | 21 | 189 | 14.5 | 25.7 | 0.00 | 0.00 | 0.00 | 84 | 1005.4 |
| 20260505100804 | 21 | 191 | 14.5 | 25.7 | 0.00 | 0.00 | 0.00 | 84 | 1005.4 |
| 20260505100505 | 21 | 189 | 16.1 | 32.2 | 0.00 | 0.00 | 0.00 | 83 | 1005.4 |
| 20260505100404 | 21 | 189 | 16.1 | 32.2 | 0.00 | 0.00 | 0.00 | 83 | 1005.4 |
| 20260505100305 | 21 | 188 | 16.1 | 32.2 | 0.00 | 0.00 | 0.00 | 83 | 1005.4 |
| 20260505100204 | 21 | 188 | 16.1 | 32.2 | 0.00 | 0.00 | 0.00 | 83 | 1005.4 |
| 20260505100106 | 21 | 188 | 16.1 | 32.2 | 0.00 | 0.00 | 0.00 | 83 | 1005.4 |
| 20260505100004 | 21 | 189 | 16.1 | 32.2 | 0.00 | 0.00 | 0.00 | 83 | 1005.4 |
| 20260505095804 | 21 | 189 | 16.1 | 32.2 | 0.00 | 0.00 | 0.00 | 83 | 1005.5 |
| 20260505095704 | 21 | 190 | 16.1 | 29.0 | 0.00 | 0.00 | 0.00 | 83 | 1005.5 |
| 20260505095604 | 21 | 190 | 16.1 | 29.0 | 0.00 | 0.00 | 0.00 | 83 | 1005.6 |
| 20260505095404 | 21 | 191 | 16.1 | 29.0 | 0.00 | 0.00 | 0.00 | 83 | 1005.6 |
| 20260505095305 | 21 | 191 | 16.1 | 29.0 | 0.00 | 0.00 | 0.00 | 83 | 1005.6 |
| 20260505095104 | 21 | 192 | 16.1 | 27.4 | 0.00 | 0.00 | 0.00 | 83 | 1005.5 |
| 20260505095004 | 21 | 192 | 16.1 | 27.4 | 0.00 | 0.00 | 0.00 | 83 | 1005.5 |
| 20260505094905 | 21 | 192 | 16.1 | 27.4 | 0.00 | 0.00 | 0.00 | 83 | 1005.5 |
| 20260505094804 | 21 | 192 | 16.1 | 27.4 | 0.00 | 0.00 | 0.00 | 83 | 1005.4 |
| 20260505094704 | 21 | 190 | 16.1 | 27.4 | 0.00 | 0.00 | 0.00 | 83 | 1005.4 |
| 20260505094604 | 21 | 191 | 17.7 | 29.0 | 0.00 | 0.00 | 0.00 | 83 | 1005.4 |
| 20260505094504 | 21 | 191 | 17.7 | 29.0 | 0.00 | 0.00 | 0.00 | 83 | 1005.4 |
| 20260505094403 | 21 | 189 | 16.1 | 29.0 | 0.00 | 0.00 | 0.00 | 83 | 1005.4 |
| 20260505094304 | 21 | 189 | 16.1 | 29.0 | 0.00 | 0.00 | 0.00 | 83 | 1005.4 |
| 20260505094204 | 21 | 190 | 16.1 | 29.0 | 0.00 | 0.00 | 0.00 | 83 | 1005.4 |
| 20260505094104 | 21 | 189 | 16.1 | 29.0 | 0.00 | 0.00 | 0.00 | 83 | 1005.4 |
| 20260505094004 | 21 | 189 | 16.1 | 29.0 | 0.00 | 0.00 | 0.00 | 83 | 1005.4 |
| 20260505093904 | 21 | 189 | 16.1 | 29.0 | 0.00 | 0.00 | 0.00 | 83 | 1005.4 |
| 20260505093704 | 21 | 190 | 16.1 | 29.0 | 0.00 | 0.00 | 0.00 | 83 | 1005.5 |
| 20260505093604 | 21 | 190 | 16.1 | 27.4 | 0.00 | 0.00 | 0.00 | 83 | 1005.4 |
| 20260505093404 | 21 | 191 | 16.1 | 27.4 | 0.00 | 0.00 | 0.00 | 83 | 1005.4 |
| 20260505093204 | 21 | 190 | 16.1 | 27.4 | 0.00 | 0.00 | 0.00 | 83 | 1005.5 |
| 20260505093004 | 21 | 191 | 16.1 | 27.4 | 0.00 | 0.00 | 0.00 | 83 | 1005.5 |
| 20260505092904 | 21 | 191 | 16.1 | 27.4 | 0.00 | 0.00 | 0.00 | 83 | 1005.5 |
| 20260505092704 | 21 | 191 | 14.5 | 27.4 | 0.00 | 0.00 | 0.00 | 83 | 1005.4 |
| 20260505092604 | 21 | 190 | 16.1 | 27.4 | 0.00 | 0.00 | 0.00 | 83 | 1005.5 |
| 20260505092504 | 21 | 189 | 16.1 | 27.4 | 0.00 | 0.00 | 0.00 | 83 | 1005.5 |
| 20260505092305 | 21 | 190 | 16.1 | 33.8 | 0.00 | 0.00 | 0.00 | 83 | 1005.4 |
| 20260505092204 | 21 | 190 | 16.1 | 33.8 | 0.00 | 0.00 | 0.00 | 83 | 1005.5 |
| 20260505092104 | 21 | 189 | 16.1 | 33.8 | 0.00 | 0.00 | 0.00 | 83 | 1005.5 |
| 20260505092004 | 21 | 190 | 17.7 | 33.8 | 0.00 | 0.00 | 0.00 | 83 | 1005.5 |
| 20260505091804 | 21 | 190 | 16.1 | 33.8 | 0.00 | 0.00 | 0.00 | 83 | 1005.6 |
| 20260505091705 | 21 | 190 | 17.7 | 33.8 | 0.00 | 0.00 | 0.00 | 83 | 1005.7 |
| 20260505091604 | 21 | 191 | 17.7 | 33.8 | 0.00 | 0.00 | 0.00 | 83 | 1005.7 |
| 20260505091505 | 21 | 191 | 17.7 | 33.8 | 0.00 | 0.00 | 0.00 | 83 | 1005.8 |
| 20260505091404 | 21 | 191 | 16.1 | 29.0 | 0.00 | 0.00 | 0.00 | 83 | 1005.8 |
| 20260505091306 | 21 | 192 | 17.7 | 29.0 | 0.00 | 0.00 | 0.00 | 83 | 1005.8 |
| 20260505091204 | 21 | 193 | 17.7 | 29.0 | 0.00 | 0.00 | 0.00 | 83 | 1005.8 |
| 20260505091004 | 21 | 195 | 14.5 | 29.0 | 0.00 | 0.00 | 0.00 | 83 | 1005.8 |
| 20260505090904 | 21 | 195 | 14.5 | 29.0 | 0.00 | 0.00 | 0.00 | 83 | 1005.7 |
| 20260505090704 | 21 | 196 | 12.9 | 29.0 | 0.00 | 0.00 | 0.00 | 83 | 1005.6 |
| 20260505090505 | 21 | 199 | 12.9 | 24.1 | 0.00 | 0.00 | 0.00 | 83 | 1005.6 |
| 20260505090404 | 21 | 200 | 14.5 | 24.1 | 0.00 | 0.00 | 0.00 | 83 | 1005.7 |
| 20260505090305 | 21 | 197 | 12.9 | 24.1 | 0.00 | 0.00 | 0.00 | 83 | 1005.8 |
| 20260505090204 | 21 | 196 | 12.9 | 24.1 | 0.00 | 0.00 | 0.00 | 83 | 1005.8 |
| 20260505090004 | 21 | 195 | 14.5 | 25.7 | 0.00 | 0.00 | 0.00 | 83 | 1005.8 |
| 20260505085904 | 21 | 195 | 14.5 | 25.7 | 0.00 | 0.00 | 0.00 | 83 | 1005.8 |
| 20260505085803 | 21 | 193 | 14.5 | 25.7 | 0.00 | 0.00 | 0.00 | 83 | 1005.7 |
| 20260505085704 | 21 | 195 | 14.5 | 25.7 | 0.00 | 0.00 | 0.00 | 83 | 1005.7 |
| 20260505085504 | 21 | 195 | 14.5 | 30.6 | 0.00 | 0.00 | 0.00 | 83 | 1005.8 |
| 20260505085404 | 21 | 195 | 14.5 | 30.6 | 0.00 | 0.00 | 0.00 | 83 | 1005.8 |
| 20260505085305 | 21 | 197 | 14.5 | 30.6 | 0.00 | 0.00 | 0.00 | 83 | 1005.8 |
| 20260505085204 | 21 | 196 | 14.5 | 30.6 | 0.00 | 0.00 | 0.00 | 83 | 1005.8 |
| 20260505085105 | 21 | 196 | 14.5 | 30.6 | 0.00 | 0.00 | 0.00 | 83 | 1005.8 |
| 20260505085004 | 21 | 195 | 16.1 | 30.6 | 0.00 | 0.00 | 0.00 | 83 | 1005.9 |
| 20260505084904 | 21 | 195 | 16.1 | 30.6 | 0.00 | 0.00 | 0.00 | 83 | 1005.9 |
| 20260505084803 | 21 | 196 | 16.1 | 30.6 | 0.00 | 0.00 | 0.00 | 83 | 1006.0 |
| 20260505084704 | 21 | 196 | 16.1 | 30.6 | 0.00 | 0.00 | 0.00 | 83 | 1006.0 |
| 20260505084604 | 21 | 196 | 14.5 | 30.6 | 0.00 | 0.00 | 0.00 | 83 | 1005.9 |
| 20260505084504 | 21 | 196 | 14.5 | 30.6 | 0.00 | 0.00 | 0.00 | 83 | 1005.9 |
| 20260505084404 | 21 | 195 | 14.5 | 25.7 | 0.00 | 0.00 | 0.00 | 83 | 1005.9 |
| 20260505084305 | 21 | 195 | 14.5 | 25.7 | 0.00 | 0.00 | 0.00 | 83 | 1005.9 |
| 20260505084104 | 21 | 195 | 14.5 | 25.7 | 0.00 | 0.00 | 0.00 | 83 | 1005.9 |
| 20260505084004 | 21 | 196 | 14.5 | 27.4 | 0.00 | 0.00 | 0.00 | 83 | 1005.8 |
| 20260505083905 | 21 | 197 | 14.5 | 27.4 | 0.00 | 0.00 | 0.00 | 83 | 1005.8 |
| 20260505083804 | 21 | 195 | 14.5 | 27.4 | 0.00 | 0.00 | 0.00 | 83 | 1005.9 |
| 20260505083704 | 21 | 195 | 12.9 | 27.4 | 0.00 | 0.00 | 0.00 | 83 | 1005.9 |
| 20260505083604 | 21 | 194 | 14.5 | 27.4 | 0.00 | 0.00 | 0.00 | 83 | 1005.9 |
| 20260505083504 | 21 | 193 | 14.5 | 27.4 | 0.00 | 0.00 | 0.00 | 83 | 1006.0 |
| 20260505083403 | 21 | 192 | 14.5 | 27.4 | 0.00 | 0.00 | 0.00 | 83 | 1006.0 |
| 20260505083204 | 21 | 190 | 14.5 | 27.4 | 0.00 | 0.00 | 0.00 | 83 | 1006.1 |
| 20260505083105 | 21 | 189 | 14.5 | 27.4 | 0.00 | 0.00 | 0.00 | 83 | 1006.1 |
| 20260505083004 | 21 | 188 | 14.5 | 25.7 | 0.00 | 0.00 | 0.00 | 83 | 1006.2 |
| 20260505082905 | 21 | 186 | 14.5 | 25.7 | 0.00 | 0.00 | 0.00 | 83 | 1006.1 |
| 20260505082804 | 21 | 186 | 14.5 | 25.7 | 0.00 | 0.00 | 0.00 | 83 | 1006.1 |
| 20260505082704 | 21 | 186 | 14.5 | 25.7 | 0.00 | 0.00 | 0.00 | 83 | 1006.0 |
| 20260505082604 | 21 | 185 | 14.5 | 25.7 | 0.00 | 0.00 | 0.00 | 83 | 1006.0 |
| 20260505082505 | 21 | 186 | 14.5 | 25.7 | 0.00 | 0.00 | 0.00 | 83 | 1006.1 |
| 20260505082404 | 21 | 186 | 14.5 | 25.7 | 0.00 | 0.00 | 0.00 | 83 | 1006.1 |
| 20260505082304 | 21 | 188 | 14.5 | 25.7 | 0.00 | 0.00 | 0.00 | 83 | 1006.2 |
| 20260505082204 | 21 | 188 | 14.5 | 24.1 | 0.00 | 0.00 | 0.00 | 83 | 1006.1 |
| 20260505082104 | 21 | 190 | 14.5 | 24.1 | 0.00 | 0.00 | 0.00 | 83 | 1006.2 |
| 20260505082004 | 21 | 190 | 14.5 | 24.1 | 0.00 | 0.00 | 0.00 | 83 | 1006.2 |
| 20260505081904 | 21 | 190 | 14.5 | 24.1 | 0.00 | 0.00 | 0.00 | 83 | 1006.2 |
| 20260505081603 | 21 | 192 | 14.5 | 24.1 | 0.00 | 0.00 | 0.00 | 83 | 1006.4 |
| 20260505081204 | 21 | 191 | 16.1 | 25.7 | 0.00 | 0.00 | 0.00 | 83 | 1006.3 |
| 20260505081104 | 21 | 190 | 16.1 | 25.7 | 0.00 | 0.00 | 0.00 | 83 | 1006.3 |
| 20260505081003 | 21 | 190 | 16.1 | 25.7 | 0.00 | 0.00 | 0.00 | 83 | 1006.3 |
| 20260505080804 | 21 | 190 | 16.1 | 25.7 | 0.00 | 0.00 | 0.00 | 82 | 1006.4 |
| 20260505080704 | 21 | 191 | 16.1 | 25.7 | 0.00 | 0.00 | 0.00 | 83 | 1006.4 |
| 20260505080604 | 21 | 190 | 16.1 | 25.7 | 0.00 | 0.00 | 0.00 | 82 | 1006.4 |
| 20260505080404 | 21 | 188 | 14.5 | 27.4 | 0.00 | 0.00 | 0.00 | 82 | 1006.4 |
| 20260505080204 | 21 | 189 | 14.5 | 27.4 | 0.00 | 0.00 | 0.00 | 82 | 1006.4 |
| 20260505080104 | 21 | 189 | 14.5 | 27.4 | 0.00 | 0.00 | 0.00 | 82 | 1006.4 |
| 20260505080004 | 21 | 189 | 14.5 | 27.4 | 0.00 | 0.00 | 0.00 | 82 | 1006.4 |
| 20260505075904 | 21 | 189 | 14.5 | 27.4 | 0.00 | 0.00 | 0.00 | 82 | 1006.4 |
| 20260505075804 | 21 | 190 | 12.9 | 27.4 | 0.00 | 0.00 | 0.00 | 82 | 1006.4 |
| 20260505075704 | 21 | 190 | 12.9 | 27.4 | 0.00 | 0.00 | 0.00 | 82 | 1006.3 |
| 20260505075604 | 21 | 190 | 12.9 | 27.4 | 0.00 | 0.00 | 0.00 | 82 | 1006.4 |
| 20260505075504 | 21 | 190 | 12.9 | 27.4 | 0.00 | 0.00 | 0.00 | 82 | 1006.4 |
| 20260505075404 | 21 | 190 | 14.5 | 27.4 | 0.00 | 0.00 | 0.00 | 82 | 1006.4 |
| 20260505075304 | 21 | 189 | 14.5 | 27.4 | 0.00 | 0.00 | 0.00 | 82 | 1006.4 |
| 20260505075204 | 21 | 189 | 14.5 | 27.4 | 0.00 | 0.00 | 0.00 | 82 | 1006.4 |
| 20260505075104 | 21 | 189 | 14.5 | 27.4 | 0.00 | 0.00 | 0.00 | 82 | 1006.4 |
| 20260505075005 | 21 | 190 | 14.5 | 27.4 | 0.00 | 0.00 | 0.00 | 82 | 1006.5 |
| 20260505074904 | 21 | 190 | 14.5 | 27.4 | 0.00 | 0.00 | 0.00 | 82 | 1006.5 |
| 20260505074803 | 21 | 190 | 12.9 | 27.4 | 0.00 | 0.00 | 0.00 | 82 | 1006.6 |
| 20260505074704 | 21 | 188 | 12.9 | 27.4 | 0.00 | 0.00 | 0.00 | 82 | 1006.6 |
| 20260505074603 | 21 | 188 | 12.9 | 27.4 | 0.00 | 0.00 | 0.00 | 82 | 1006.6 |
| 20260505074504 | 21 | 188 | 12.9 | 22.5 | 0.00 | 0.00 | 0.00 | 82 | 1006.6 |
| 20260505074205 | 21 | 187 | 14.5 | 29.0 | 0.00 | 0.00 | 0.00 | 82 | 1006.6 |
| 20260505074104 | 21 | 186 | 14.5 | 29.0 | 0.00 | 0.00 | 0.00 | 82 | 1006.6 |
| 20260505074004 | 21 | 184 | 14.5 | 29.0 | 0.00 | 0.00 | 0.00 | 82 | 1006.6 |
| 20260505073704 | 21 | 186 | 16.1 | 29.0 | 0.00 | 0.00 | 0.00 | 82 | 1006.6 |
| 20260505073604 | 21 | 185 | 16.1 | 29.0 | 0.00 | 0.00 | 0.00 | 82 | 1006.6 |
| 20260505073504 | 21 | 185 | 16.1 | 29.0 | 0.00 | 0.00 | 0.00 | 82 | 1006.6 |
| 20260505073405 | 21 | 184 | 17.7 | 32.2 | 0.00 | 0.00 | 0.00 | 82 | 1006.6 |
| 20260505073304 | 21 | 186 | 17.7 | 32.2 | 0.00 | 0.00 | 0.00 | 82 | 1006.7 |
| 20260505073204 | 21 | 185 | 17.7 | 32.2 | 0.00 | 0.00 | 0.00 | 82 | 1006.7 |
| 20260505073104 | 21 | 186 | 17.7 | 32.2 | 0.00 | 0.00 | 0.00 | 82 | 1006.7 |
| 20260505073004 | 21 | 186 | 17.7 | 32.2 | 0.00 | 0.00 | 0.00 | 82 | 1006.6 |
| 20260505072904 | 21 | 186 | 17.7 | 32.2 | 0.00 | 0.00 | 0.00 | 82 | 1006.7 |
| 20260505072804 | 21 | 186 | 17.7 | 32.2 | 0.00 | 0.00 | 0.00 | 82 | 1006.7 |
| 20260505072704 | 21 | 184 | 17.7 | 32.2 | 0.00 | 0.00 | 0.00 | 82 | 1006.8 |
| 20260505072604 | 21 | 186 | 16.1 | 32.2 | 0.00 | 0.00 | 0.00 | 82 | 1006.8 |
| 20260505072505 | 21 | 187 | 16.1 | 32.2 | 0.00 | 0.00 | 0.00 | 82 | 1006.8 |
| 20260505072404 | 21 | 187 | 16.1 | 32.2 | 0.00 | 0.00 | 0.00 | 82 | 1006.7 |
| 20260505072305 | 21 | 186 | 16.1 | 29.0 | 0.00 | 0.00 | 0.00 | 82 | 1006.7 |
| 20260505072204 | 21 | 186 | 16.1 | 29.0 | 0.00 | 0.00 | 0.00 | 82 | 1006.8 |
| 20260505072104 | 22 | 186 | 16.1 | 29.0 | 0.00 | 0.00 | 0.00 | 82 | 1006.8 |
| 20260505072004 | 21 | 186 | 16.1 | 29.0 | 0.00 | 0.00 | 0.00 | 82 | 1006.8 |
| 20260505071904 | 22 | 185 | 16.1 | 29.0 | 0.00 | 0.00 | 0.00 | 82 | 1006.9 |
| 20260505071805 | 22 | 187 | 17.7 | 29.0 | 0.00 | 0.00 | 0.00 | 82 | 1006.9 |
| 20260505071604 | 22 | 187 | 17.7 | 29.0 | 0.00 | 0.00 | 0.00 | 82 | 1007.0 |
| 20260505071504 | 22 | 187 | 17.7 | 29.0 | 0.00 | 0.00 | 0.00 | 82 | 1006.9 |
| 20260505071404 | 22 | 189 | 17.7 | 29.0 | 0.00 | 0.00 | 0.00 | 82 | 1006.9 |
| 20260505071304 | 22 | 189 | 17.7 | 29.0 | 0.00 | 0.00 | 0.00 | 81 | 1006.9 |
| 20260505071204 | 22 | 190 | 17.7 | 29.0 | 0.00 | 0.00 | 0.00 | 81 | 1006.9 |
| 20260505071104 | 22 | 188 | 17.7 | 29.0 | 0.00 | 0.00 | 0.00 | 81 | 1006.8 |
| 20260505071003 | 22 | 188 | 17.7 | 29.0 | 0.00 | 0.00 | 0.00 | 81 | 1006.9 |
| 20260505070904 | 22 | 190 | 16.1 | 29.0 | 0.00 | 0.00 | 0.00 | 81 | 1006.9 |
| 20260505070803 | 22 | 189 | 16.1 | 27.4 | 0.00 | 0.00 | 0.00 | 81 | 1006.9 |
| 20260505070704 | 22 | 189 | 16.1 | 27.4 | 0.00 | 0.00 | 0.00 | 81 | 1007.0 |
| 20260505070504 | 22 | 189 | 14.5 | 27.4 | 0.00 | 0.00 | 0.00 | 81 | 1007.1 |
| 20260505070304 | 22 | 188 | 14.5 | 27.4 | 0.00 | 0.00 | 0.00 | 81 | 1007.0 |
| 20260505070204 | 22 | 189 | 14.5 | 27.4 | 0.00 | 0.00 | 0.00 | 81 | 1007.0 |
| 20260505070104 | 22 | 192 | 14.5 | 24.1 | 0.00 | 0.00 | 0.00 | 81 | 1007.1 |
| 20260505070004 | 22 | 191 | 14.5 | 24.1 | 0.00 | 0.00 | 0.00 | 81 | 1007.1 |
| 20260505065805 | 22 | 190 | 14.5 | 30.6 | 0.00 | 0.00 | 0.00 | 81 | 1007.1 |
| 20260505065504 | 22 | 189 | 16.1 | 30.6 | 0.00 | 0.00 | 0.00 | 81 | 1007.1 |
| 20260505065404 | 22 | 189 | 16.1 | 30.6 | 0.00 | 0.00 | 0.00 | 81 | 1007.2 |
| 20260505065204 | 22 | 189 | 16.1 | 30.6 | 0.00 | 0.00 | 0.00 | 81 | 1007.1 |
| 20260505065103 | 22 | 188 | 16.1 | 30.6 | 0.00 | 0.00 | 0.00 | 81 | 1007.1 |
| 20260505064903 | 22 | 189 | 16.1 | 33.8 | 0.00 | 0.00 | 0.00 | 81 | 1007.1 |
| 20260505064804 | 22 | 190 | 16.1 | 33.8 | 0.00 | 0.00 | 0.00 | 81 | 1007.1 |
| 20260505064705 | 22 | 190 | 16.1 | 33.8 | 0.00 | 0.00 | 0.00 | 81 | 1007.1 |
| 20260505064604 | 22 | 190 | 16.1 | 33.8 | 0.00 | 0.00 | 0.00 | 81 | 1007.2 |
| 20260505064504 | 22 | 189 | 16.1 | 33.8 | 0.00 | 0.00 | 0.00 | 81 | 1007.2 |
| 20260505064404 | 22 | 186 | 16.1 | 33.8 | 0.00 | 0.00 | 0.00 | 81 | 1007.2 |
| 20260505064304 | 22 | 185 | 16.1 | 33.8 | 0.00 | 0.00 | 0.00 | 81 | 1007.2 |
| 20260505064204 | 22 | 183 | 16.1 | 33.8 | 0.00 | 0.00 | 0.00 | 81 | 1007.2 |
| 20260505064103 | 22 | 182 | 16.1 | 33.8 | 0.00 | 0.00 | 0.00 | 81 | 1007.2 |
| 20260505064004 | 22 | 183 | 16.1 | 33.8 | 0.00 | 0.00 | 0.00 | 81 | 1007.2 |
| 20260505063804 | 22 | 179 | 16.1 | 29.0 | 0.00 | 0.00 | 0.00 | 81 | 1007.1 |
| 20260505063705 | 22 | 179 | 16.1 | 29.0 | 0.00 | 0.00 | 0.00 | 81 | 1007.1 |
| 20260505063604 | 22 | 179 | 16.1 | 29.0 | 0.00 | 0.00 | 0.00 | 81 | 1007.1 |
| 20260505063505 | 22 | 179 | 14.5 | 27.4 | 0.00 | 0.00 | 0.00 | 81 | 1007.1 |
| 20260505063404 | 22 | 181 | 14.5 | 27.4 | 0.00 | 0.00 | 0.00 | 81 | 1007.1 |
| 20260505063303 | 22 | 183 | 14.5 | 27.4 | 0.00 | 0.00 | 0.00 | 81 | 1007.1 |
| 20260505063204 | 22 | 184 | 14.5 | 27.4 | 0.00 | 0.00 | 0.00 | 81 | 1007.2 |
| 20260505063104 | 22 | 184 | 14.5 | 27.4 | 0.00 | 0.00 | 0.00 | 81 | 1007.1 |
| 20260505062904 | 22 | 184 | 14.5 | 25.7 | 0.00 | 0.00 | 0.00 | 81 | 1007.2 |
| 20260505062803 | 22 | 185 | 16.1 | 25.7 | 0.00 | 0.00 | 0.00 | 81 | 1007.1 |
| 20260505062704 | 22 | 188 | 16.1 | 30.6 | 0.00 | 0.00 | 0.00 | 81 | 1007.2 |
| 20260505062604 | 22 | 188 | 16.1 | 30.6 | 0.00 | 0.00 | 0.00 | 81 | 1007.2 |
| 20260505062504 | 22 | 188 | 16.1 | 30.6 | 0.00 | 0.00 | 0.00 | 81 | 1007.3 |
| 20260505062404 | 22 | 188 | 16.1 | 30.6 | 0.00 | 0.00 | 0.00 | 81 | 1007.2 |
| 20260505062304 | 22 | 189 | 16.1 | 30.6 | 0.00 | 0.00 | 0.00 | 81 | 1007.3 |
| 20260505062204 | 22 | 189 | 17.7 | 30.6 | 0.00 | 0.00 | 0.00 | 81 | 1007.2 |
| 20260505062004 | 22 | 188 | 17.7 | 30.6 | 0.00 | 0.00 | 0.00 | 81 | 1007.3 |
| 20260505061906 | 22 | 188 | 17.7 | 32.2 | 0.00 | 0.00 | 0.00 | 81 | 1007.3 |
| 20260505061704 | 22 | 186 | 16.1 | 32.2 | 0.00 | 0.00 | 0.00 | 81 | 1007.3 |
| 20260505061605 | 22 | 185 | 16.1 | 32.2 | 0.00 | 0.00 | 0.00 | 81 | 1007.3 |
| 20260505061404 | 22 | 187 | 14.5 | 32.2 | 0.00 | 0.00 | 0.00 | 81 | 1007.3 |
| 20260505061304 | 22 | 187 | 14.5 | 32.2 | 0.00 | 0.00 | 0.00 | 81 | 1007.4 |
| 20260505061104 | 22 | 189 | 14.5 | 32.2 | 0.00 | 0.00 | 0.00 | 81 | 1007.4 |
| 20260505061004 | 22 | 189 | 12.9 | 32.2 | 0.00 | 0.00 | 0.00 | 81 | 1007.4 |
| 20260505060904 | 22 | 190 | 11.3 | 22.5 | 0.00 | 0.00 | 0.00 | 81 | 1007.4 |
| 20260505060804 | 22 | 189 | 11.3 | 22.5 | 0.00 | 0.00 | 0.00 | 81 | 1007.4 |
| 20260505060704 | 22 | 190 | 11.3 | 22.5 | 0.00 | 0.00 | 0.00 | 81 | 1007.4 |
| 20260505060604 | 22 | 190 | 11.3 | 22.5 | 0.00 | 0.00 | 0.00 | 81 | 1007.4 |
| 20260505060304 | 22 | 187 | 12.9 | 22.5 | 0.00 | 0.00 | 0.00 | 81 | 1007.5 |
| 20260505060203 | 22 | 187 | 12.9 | 27.4 | 0.00 | 0.00 | 0.00 | 81 | 1007.4 |
| 20260505060104 | 22 | 188 | 12.9 | 27.4 | 0.00 | 0.00 | 0.00 | 81 | 1007.5 |
| 20260505060004 | 22 | 189 | 12.9 | 27.4 | 0.00 | 0.00 | 0.00 | 81 | 1007.5 |
| 20260505055904 | 22 | 188 | 12.9 | 27.4 | 0.00 | 0.00 | 0.00 | 81 | 1007.5 |
| 20260505055804 | 22 | 188 | 12.9 | 27.4 | 0.00 | 0.00 | 0.00 | 81 | 1007.5 |
| 20260505055604 | 22 | 189 | 14.5 | 27.4 | 0.00 | 0.00 | 0.00 | 81 | 1007.5 |
| 20260505055504 | 22 | 190 | 14.5 | 27.4 | 0.00 | 0.00 | 0.00 | 81 | 1007.5 |
| 20260505055304 | 22 | 190 | 14.5 | 27.4 | 0.00 | 0.00 | 0.00 | 81 | 1007.5 |
| 20260505055203 | 22 | 190 | 14.5 | 27.4 | 0.00 | 0.00 | 0.00 | 81 | 1007.5 |
| 20260505055104 | 22 | 187 | 14.5 | 27.4 | 0.00 | 0.00 | 0.00 | 81 | 1007.4 |
| 20260505055004 | 22 | 188 | 14.5 | 27.4 | 0.00 | 0.00 | 0.00 | 81 | 1007.4 |
| 20260505054704 | 22 | 187 | 14.5 | 27.4 | 0.00 | 0.00 | 0.00 | 81 | 1007.3 |
| 20260505054604 | 22 | 187 | 14.5 | 27.4 | 0.00 | 0.00 | 0.00 | 81 | 1007.3 |
| 20260505054504 | 22 | 185 | 14.5 | 27.4 | 0.00 | 0.00 | 0.00 | 81 | 1007.3 |
| 20260505054304 | 22 | 184 | 14.5 | 27.4 | 0.00 | 0.00 | 0.00 | 81 | 1007.3 |
| 20260505053805 | 22 | 185 | 14.5 | 29.0 | 0.00 | 0.00 | 0.00 | 81 | 1007.3 |
| 20260505053704 | 22 | 184 | 14.5 | 29.0 | 0.00 | 0.00 | 0.00 | 81 | 1007.3 |
| 20260505053604 | 22 | 184 | 14.5 | 29.0 | 0.00 | 0.00 | 0.00 | 81 | 1007.4 |
| 20260505053504 | 22 | 185 | 12.9 | 29.0 | 0.00 | 0.00 | 0.00 | 81 | 1007.4 |
| 20260505053403 | 22 | 184 | 12.9 | 29.0 | 0.00 | 0.00 | 0.00 | 81 | 1007.5 |
| 20260505053304 | 22 | 184 | 12.9 | 29.0 | 0.00 | 0.00 | 0.00 | 81 | 1007.4 |
| 20260505052904 | 22 | 179 | 12.9 | 22.5 | 0.00 | 0.00 | 0.00 | 81 | 1007.5 |
| 20260505052804 | 22 | 178 | 12.9 | 22.5 | 0.00 | 0.00 | 0.00 | 81 | 1007.5 |
| 20260505052603 | 22 | 177 | 12.9 | 22.5 | 0.00 | 0.00 | 0.00 | 81 | 1007.4 |
| 20260505052504 | 22 | 176 | 12.9 | 22.5 | 0.00 | 0.00 | 0.00 | 81 | 1007.3 |
| 20260505052404 | 22 | 177 | 12.9 | 22.5 | 0.00 | 0.00 | 0.00 | 81 | 1007.4 |
| 20260505052104 | 22 | 179 | 12.9 | 22.5 | 0.00 | 0.00 | 0.00 | 81 | 1007.3 |
| 20260505051904 | 22 | 182 | 12.9 | 22.5 | 0.00 | 0.00 | 0.00 | 81 | 1007.3 |
| 20260505051804 | 22 | 181 | 14.5 | 22.5 | 0.00 | 0.00 | 0.00 | 81 | 1007.3 |
| 20260505051604 | 22 | 183 | 14.5 | 22.5 | 0.00 | 0.00 | 0.00 | 81 | 1007.3 |
| 20260505051504 | 22 | 183 | 14.5 | 22.5 | 0.00 | 0.00 | 0.00 | 81 | 1007.2 |
| 20260505051404 | 22 | 182 | 14.5 | 22.5 | 0.00 | 0.00 | 0.00 | 81 | 1007.3 |
| 20260505051304 | 22 | 183 | 14.5 | 22.5 | 0.00 | 0.00 | 0.00 | 80 | 1007.3 |
| 20260505051204 | 22 | 182 | 14.5 | 22.5 | 0.00 | 0.00 | 0.00 | 80 | 1007.2 |
| 20260505051105 | 22 | 183 | 14.5 | 22.5 | 0.00 | 0.00 | 0.00 | 80 | 1007.2 |
| 20260505051004 | 22 | 183 | 14.5 | 22.5 | 0.00 | 0.00 | 0.00 | 80 | 1007.2 |
| 20260505050904 | 22 | 182 | 14.5 | 22.5 | 0.00 | 0.00 | 0.00 | 80 | 1007.2 |
| 20260505050804 | 22 | 182 | 14.5 | 24.1 | 0.00 | 0.00 | 0.00 | 80 | 1007.3 |
| 20260505050704 | 22 | 181 | 14.5 | 24.1 | 0.00 | 0.00 | 0.00 | 80 | 1007.3 |
| 20260505050504 | 22 | 179 | 14.5 | 24.1 | 0.00 | 0.00 | 0.00 | 80 | 1007.3 |
| 20260505050404 | 22 | 179 | 14.5 | 24.1 | 0.00 | 0.00 | 0.00 | 80 | 1007.3 |
| 20260505050303 | 22 | 177 | 16.1 | 24.1 | 0.00 | 0.00 | 0.00 | 80 | 1007.4 |
| 20260505050204 | 22 | 177 | 14.5 | 24.1 | 0.00 | 0.00 | 0.00 | 80 | 1007.3 |
| 20260505050104 | 22 | 176 | 14.5 | 24.1 | 0.00 | 0.00 | 0.00 | 80 | 1007.2 |